Darstellungsparameter: Aktuell verwendete Einstellungen:
Skalierung der Graphiken ... ?
xyx+y,   Skalierungsfaktor:      Skalierung: Modus: x, Faktor: 1
Darstellungszeitraum ... ?
Vom - - bis: - -   Zeitraum: 25.07.2019 - 29.07.2019
Min/Max/Avg-Anzeige ... ?
Zeige MMA aktuell
Zeige MMA Monat
Zeige MMA alles
Zeige --A aktuell
Zeige --A Monat
Zeige --A alles
Keine MMA-Anzeige
MMA:
Keine MMA-Graphiken
MMA-Basis: 25.07.2019 - 29.07.2019
Quicknavigation für Darstellung... ?
Tage:      1T, 2T, 3T, 5T -1T -2T -3T -5T +1T +2T +3T +5T
Wochen: 1W, 2W, 3W -1W -2W -3W +1W +2W +3W
Monate: 1M, 3M, 6M -1M -3M -6M +1M +3M +6M
Jahre:    1J, 3J, 5J, 10J -1J -3J -5J -10J +1J +3J +5J +10J
Nutze für die Darstellung ... ?
Originaldaten oder Mittelwerte auf ...
Stundenbasis Tagesbasis Wochenbasis
Monatsbasis Jahresbasis      Datenbasis: Original-Daten
Darstellen als:
Statistik (Auto) Statistik J:M      Darstellung:
Zur Graphik,    zurück zur Übersicht aller Sensoren.
 
Tabellarische Datenbersicht: ?
 
Sensor: Nr:Datum:Temp:Feuchte:Taupunkt:
Aussen-T/F 1 25-07-2019 00:00:00 24.3 C 62 % 16.55 C
2 25-07-2019 00:05:00 24 C 61 % 16.02 C
3 25-07-2019 00:10:00 23.9 C 63 % 16.43 C
4 25-07-2019 00:15:00 23.9 C 63 % 16.43 C
5 25-07-2019 00:20:00 23.8 C 63 % 16.33 C
6 25-07-2019 00:25:00 23.7 C 62 % 15.99 C
7 25-07-2019 00:30:00 23.6 C 62 % 15.89 C
8 25-07-2019 00:35:00 23.6 C 64 % 16.39 C
9 25-07-2019 00:40:00 23.4 C 64 % 16.2 C
10 25-07-2019 00:45:00 23.3 C 63 % 15.86 C
11 25-07-2019 00:50:00 23.4 C 64 % 16.2 C
12 25-07-2019 00:55:00 23.3 C 66 % 16.59 C
13 25-07-2019 01:00:00 23.2 C 65 % 16.26 C
14 25-07-2019 01:05:00 23.1 C 65 % 16.16 C
15 25-07-2019 01:10:00 22.9 C 66 % 16.21 C
16 25-07-2019 01:15:00 22.7 C 66 % 16.02 C
17 25-07-2019 01:20:00 22.6 C 67 % 16.16 C
18 25-07-2019 01:25:00 22.4 C 66 % 15.74 C
19 25-07-2019 01:30:00 22.3 C 67 % 15.88 C
20 25-07-2019 01:35:00 22.3 C 65 % 15.4 C
21 25-07-2019 01:40:00 22.3 C 68 % 16.11 C
22 25-07-2019 01:45:00 22.3 C 68 % 16.11 C
23 25-07-2019 01:50:00 22.2 C 68 % 16.01 C
24 25-07-2019 01:55:00 22.1 C 68 % 15.92 C
25 25-07-2019 02:00:00 22 C 69 % 16.05 C
Sensor: Nr:Datum:Temp:Feuchte:Taupunkt:
Aussen-T/F 26 25-07-2019 02:05:00 21.9 C 70 % 16.18 C
27 25-07-2019 02:10:00 21.8 C 70 % 16.09 C
28 25-07-2019 02:15:00 21.7 C 70 % 15.99 C
29 25-07-2019 02:20:00 21.7 C 70 % 15.99 C
30 25-07-2019 02:25:00 21.7 C 71 % 16.21 C
31 25-07-2019 02:30:00 21.6 C 70 % 15.89 C
32 25-07-2019 02:35:00 21.5 C 70 % 15.8 C
33 25-07-2019 02:40:00 21.4 C 71 % 15.93 C
34 25-07-2019 02:45:00 21.4 C 71 % 15.93 C
35 25-07-2019 02:50:00 21.3 C 72 % 16.05 C
36 25-07-2019 02:55:00 21.2 C 72 % 15.95 C
37 25-07-2019 03:00:00 21.2 C 72 % 15.95 C
38 25-07-2019 03:05:00 21.2 C 73 % 16.17 C
39 25-07-2019 03:10:00 21.2 C 73 % 16.17 C
40 25-07-2019 03:15:00 21.1 C 73 % 16.07 C
41 25-07-2019 03:20:00 20.9 C 74 % 16.09 C
42 25-07-2019 03:25:00 20.8 C 74 % 16 C
43 25-07-2019 03:30:00 20.8 C 74 % 16 C
44 25-07-2019 03:35:00 20.8 C 74 % 16 C
45 25-07-2019 03:40:00 20.8 C 74 % 16 C
46 25-07-2019 03:45:00 20.7 C 75 % 16.11 C
47 25-07-2019 03:50:00 20.6 C 75 % 16.01 C
48 25-07-2019 03:55:00 20.6 C 76 % 16.22 C
49 25-07-2019 04:00:00 20.4 C 76 % 16.03 C
50 25-07-2019 04:05:00 20.3 C 76 % 15.93 C
Sensor: Nr:Datum:Temp:Feuchte:Taupunkt:
Aussen-T/F 51 25-07-2019 04:10:00 20.2 C 77 % 16.04 C
52 25-07-2019 04:15:00 20.1 C 77 % 15.94 C
53 25-07-2019 04:20:00 19.9 C 78 % 15.95 C
54 25-07-2019 04:25:00 20.1 C 78 % 16.14 C
55 25-07-2019 04:30:00 20.1 C 78 % 16.14 C
56 25-07-2019 04:35:00 20.1 C 78 % 16.14 C
57 25-07-2019 04:40:00 20.1 C 78 % 16.14 C
58 25-07-2019 04:45:00 19.9 C 79 % 16.15 C
59 25-07-2019 04:50:00 19.9 C 79 % 16.15 C
60 25-07-2019 04:55:00 19.8 C 79 % 16.05 C
61 25-07-2019 05:00:00 19.7 C 79 % 15.96 C
62 25-07-2019 05:05:00 19.6 C 79 % 15.86 C
63 25-07-2019 05:10:00 19.6 C 80 % 16.06 C
64 25-07-2019 05:15:00 19.4 C 80 % 15.86 C
65 25-07-2019 05:20:00 19.4 C 80 % 15.86 C
66 25-07-2019 05:25:00 19.3 C 80 % 15.76 C
67 25-07-2019 05:30:00 19.3 C 80 % 15.76 C
68 25-07-2019 05:35:00 19.3 C 80 % 15.76 C
69 25-07-2019 05:40:00 19.2 C 80 % 15.67 C
70 25-07-2019 05:45:00 19.2 C 80 % 15.67 C
71 25-07-2019 05:50:00 19.2 C 81 % 15.86 C
72 25-07-2019 05:55:00 19.1 C 81 % 15.76 C
73 25-07-2019 06:00:00 19.1 C 82 % 15.96 C
74 25-07-2019 06:05:00 19.1 C 82 % 15.96 C
75 25-07-2019 06:10:00 19.1 C 82 % 15.96 C
Sensor: Nr:Datum:Temp:Feuchte:Taupunkt:
Aussen-T/F 76 25-07-2019 06:15:00 19.2 C 82 % 16.05 C
77 25-07-2019 06:20:00 19.2 C 82 % 16.05 C
78 25-07-2019 06:25:00 19.1 C 82 % 15.96 C
79 25-07-2019 06:30:00 19.2 C 82 % 16.05 C
80 25-07-2019 06:35:00 19.2 C 82 % 16.05 C
81 25-07-2019 06:40:00 19.2 C 82 % 16.05 C
82 25-07-2019 06:45:00 19.3 C 83 % 16.34 C
83 25-07-2019 06:50:00 19.3 C 83 % 16.34 C
84 25-07-2019 06:55:00 19.3 C 83 % 16.34 C
85 25-07-2019 07:00:00 19.3 C 83 % 16.34 C
86 25-07-2019 07:05:00 19.3 C 83 % 16.34 C
87 25-07-2019 07:10:00 19.4 C 84 % 16.63 C
88 25-07-2019 07:15:00 19.4 C 84 % 16.63 C
89 25-07-2019 07:20:00 19.4 C 84 % 16.63 C
90 25-07-2019 07:25:00 19.5 C 84 % 16.72 C
91 25-07-2019 07:30:00 19.6 C 84 % 16.82 C
92 25-07-2019 07:35:00 19.6 C 84 % 16.82 C
93 25-07-2019 07:40:00 19.7 C 84 % 16.92 C
94 25-07-2019 07:45:00 19.8 C 84 % 17.02 C
95 25-07-2019 07:50:00 19.8 C 84 % 17.02 C
96 25-07-2019 07:55:00 19.9 C 84 % 17.12 C
97 25-07-2019 08:00:00 20 C 83 % 17.02 C
98 25-07-2019 08:05:00 20.1 C 84 % 17.31 C
99 25-07-2019 08:10:00 20.2 C 83 % 17.22 C
100 25-07-2019 08:15:00 20.3 C 82 % 17.13 C
Sensor: Nr:Datum:Temp:Feuchte:Taupunkt:
Aussen-T/F 101 25-07-2019 08:20:00 20.5 C 83 % 17.51 C
102 25-07-2019 08:25:00 20.7 C 83 % 17.71 C
103 25-07-2019 08:30:00 20.8 C 83 % 17.81 C
104 25-07-2019 08:35:00 20.9 C 82 % 17.71 C
105 25-07-2019 08:40:00 21.1 C 83 % 18.1 C
106 25-07-2019 08:45:00 21.2 C 83 % 18.2 C
107 25-07-2019 08:50:00 21.4 C 82 % 18.2 C
108 25-07-2019 08:55:00 21.6 C 82 % 18.39 C
109 25-07-2019 09:00:00 21.7 C 81 % 18.3 C
110 25-07-2019 09:05:00 21.8 C 79 % 18 C
111 25-07-2019 09:10:00 22.1 C 81 % 18.69 C
112 25-07-2019 09:15:00 22.2 C 81 % 18.78 C
113 25-07-2019 09:20:00 22.3 C 78 % 18.28 C
114 25-07-2019 09:25:00 22.6 C 78 % 18.57 C
115 25-07-2019 09:30:00 22.8 C 77 % 18.56 C
116 25-07-2019 09:35:00 23.1 C 77 % 18.85 C
117 25-07-2019 09:40:00 23.3 C 75 % 18.62 C
118 25-07-2019 09:45:00 23.5 C 74 % 18.6 C
119 25-07-2019 09:50:00 23.7 C 72 % 18.35 C
120 25-07-2019 09:55:00 24 C 70 % 18.19 C
121 25-07-2019 10:00:00 24.3 C 70 % 18.48 C
122 25-07-2019 10:05:00 24.6 C 71 % 18.99 C
123 25-07-2019 10:10:00 24.9 C 70 % 19.05 C
124 25-07-2019 10:15:00 25.1 C 69 % 19.01 C
125 25-07-2019 10:20:00 25.3 C 68 % 18.97 C
Sensor: Nr:Datum:Temp:Feuchte:Taupunkt:
Aussen-T/F 126 25-07-2019 10:25:00 25.6 C 69 % 19.49 C
127 25-07-2019 10:30:00 25.9 C 67 % 19.3 C
128 25-07-2019 10:35:00 26.2 C 65 % 19.1 C
129 25-07-2019 10:40:00 26.6 C 63 % 18.97 C
130 25-07-2019 10:45:00 26.9 C 62 % 19 C
131 25-07-2019 10:50:00 27.2 C 63 % 19.54 C
132 25-07-2019 10:55:00 27.5 C 63 % 19.82 C
133 25-07-2019 11:00:00 27.8 C 61 % 19.59 C
134 25-07-2019 11:05:00 28.2 C 60 % 19.69 C
135 25-07-2019 11:10:00 28.6 C 56 % 18.96 C
136 25-07-2019 11:15:00 29.1 C 58 % 19.99 C
137 25-07-2019 11:20:00 29.4 C 54 % 19.12 C
138 25-07-2019 11:25:00 29.8 C 55 % 19.78 C
139 25-07-2019 11:30:00 30.1 C 54 % 19.76 C
140 25-07-2019 11:35:00 30.5 C 53 % 19.83 C
141 25-07-2019 11:40:00 30.8 C 50 % 19.17 C
142 25-07-2019 11:45:00 31.2 C 48 % 18.88 C
143 25-07-2019 11:50:00 31.6 C 47 % 18.91 C
144 25-07-2019 11:55:00 32.1 C 44 % 18.3 C
145 25-07-2019 12:00:00 32.6 C 41 % 17.63 C
146 25-07-2019 12:05:00 33 C 40 % 17.59 C
147 25-07-2019 12:10:00 33.4 C 38 % 17.14 C
148 25-07-2019 12:15:00 33.8 C 38 % 17.49 C
149 25-07-2019 12:20:00 34.3 C 35 % 16.63 C
150 25-07-2019 12:25:00 34.7 C 35 % 16.98 C
Sensor: Nr:Datum:Temp:Feuchte:Taupunkt:
Aussen-T/F 151 25-07-2019 12:30:00 34.9 C 35 % 17.16 C
152 25-07-2019 12:35:00 35.2 C 33 % 16.49 C
153 25-07-2019 12:40:00 35.3 C 33 % 16.58 C
154 25-07-2019 12:45:00 35.5 C 33 % 16.75 C
155 25-07-2019 12:50:00 35.7 C 33 % 16.92 C
156 25-07-2019 12:55:00 35.9 C 31 % 16.11 C
157 25-07-2019 13:00:00 36 C 32 % 16.7 C
158 25-07-2019 13:05:00 36.1 C 32 % 16.79 C
159 25-07-2019 13:10:00 36.2 C 32 % 16.87 C
160 25-07-2019 13:15:00 36.3 C 32 % 16.96 C
161 25-07-2019 13:20:00 36.3 C 30 % 15.94 C
162 25-07-2019 13:25:00 36.4 C 31 % 16.54 C
163 25-07-2019 13:30:00 36.4 C 31 % 16.54 C
164 25-07-2019 13:35:00 36.6 C 31 % 16.72 C
165 25-07-2019 13:40:00 36.7 C 31 % 16.8 C
166 25-07-2019 13:45:00 36.8 C 30 % 16.37 C
167 25-07-2019 13:50:00 36.9 C 31 % 16.97 C
168 25-07-2019 13:55:00 36.9 C 29 % 15.93 C
169 25-07-2019 14:00:00 36.9 C 30 % 16.46 C
170 25-07-2019 14:05:00 37.1 C 30 % 16.63 C
171 25-07-2019 14:10:00 37.2 C 29 % 16.18 C
172 25-07-2019 14:15:00 37.3 C 30 % 16.8 C
173 25-07-2019 14:20:00 37.4 C 29 % 16.35 C
174 25-07-2019 14:25:00 37.4 C 27 % 15.24 C
175 25-07-2019 14:30:00 37.4 C 30 % 16.89 C
Sensor: Nr:Datum:Temp:Feuchte:Taupunkt:
Aussen-T/F 176 25-07-2019 14:35:00 37.6 C 28 % 15.97 C
177 25-07-2019 14:40:00 37.6 C 29 % 16.52 C
178 25-07-2019 14:45:00 37.7 C 27 % 15.49 C
179 25-07-2019 14:50:00 37.7 C 29 % 16.61 C
180 25-07-2019 14:55:00 37.8 C 28 % 16.14 C
181 25-07-2019 15:00:00 37.9 C 28 % 16.23 C
182 25-07-2019 15:05:00 38.2 C 28 % 16.48 C
183 25-07-2019 15:10:00 38.3 C 28 % 16.57 C
184 25-07-2019 15:15:00 38.5 C 27 % 16.16 C
185 25-07-2019 15:20:00 38.7 C 26 % 15.74 C
186 25-07-2019 15:25:00 38.8 C 26 % 15.83 C
187 25-07-2019 15:30:00 38.9 C 26 % 15.91 C
188 25-07-2019 15:35:00 38.7 C 26 % 15.74 C
189 25-07-2019 15:40:00 38.8 C 26 % 15.83 C
190 25-07-2019 15:45:00 39.2 C 25 % 15.55 C
191 25-07-2019 15:50:00 39.6 C 26 % 16.5 C
192 25-07-2019 15:55:00 39.9 C 24 % 15.5 C
193 25-07-2019 16:00:00 40.1 C 23 % 15 C
194 25-07-2019 16:05:00 40.2 C 24 % 15.75 C
195 25-07-2019 16:10:00 40.2 C 25 % 16.39 C
196 25-07-2019 16:15:00 40.3 C 23 % 15.17 C
197 25-07-2019 16:20:00 40.4 C 24 % 15.91 C
198 25-07-2019 16:25:00 40.4 C 25 % 16.55 C
199 25-07-2019 16:30:00 40.4 C 23 % 15.25 C
200 25-07-2019 16:35:00 40.3 C 23 % 15.17 C
Sensor: Nr:Datum:Temp:Feuchte:Taupunkt:
Aussen-T/F 201 25-07-2019 16:40:00 40 C 23 % 14.92 C
202 25-07-2019 16:45:00 39.9 C 23 % 14.83 C
203 25-07-2019 16:50:00 39.9 C 25 % 16.13 C
204 25-07-2019 16:55:00 39.7 C 23 % 14.67 C
205 25-07-2019 17:00:00 39.8 C 24 % 15.41 C
206 25-07-2019 17:05:00 39.9 C 24 % 15.5 C
207 25-07-2019 17:10:00 40.3 C 23 % 15.17 C
208 25-07-2019 17:15:00 40.3 C 22 % 14.48 C
209 25-07-2019 17:20:00 40.1 C 22 % 14.31 C
210 25-07-2019 17:25:00 39.9 C 22 % 14.15 C
211 25-07-2019 17:30:00 39.6 C 22 % 13.9 C
212 25-07-2019 17:35:00 39.5 C 22 % 13.82 C
213 25-07-2019 17:40:00 39.5 C 22 % 13.82 C
214 25-07-2019 17:45:00 39.5 C 22 % 13.82 C
215 25-07-2019 17:50:00 39.6 C 23 % 14.59 C
216 25-07-2019 17:55:00 39.7 C 23 % 14.67 C
217 25-07-2019 18:00:00 39.6 C 23 % 14.59 C
218 25-07-2019 18:05:00 39.4 C 23 % 14.42 C
219 25-07-2019 18:10:00 39.4 C 22 % 13.74 C
220 25-07-2019 18:15:00 39.4 C 23 % 14.42 C
221 25-07-2019 18:20:00 39.3 C 22 % 13.65 C
222 25-07-2019 18:25:00 39.3 C 23 % 14.34 C
223 25-07-2019 18:30:00 39.2 C 23 % 14.26 C
224 25-07-2019 18:35:00 39.1 C 23 % 14.17 C
225 25-07-2019 18:40:00 38.8 C 23 % 13.92 C
Sensor: Nr:Datum:Temp:Feuchte:Taupunkt:
Aussen-T/F 226 25-07-2019 18:45:00 38.6 C 24 % 14.42 C
227 25-07-2019 18:50:00 38.6 C 24 % 14.42 C
228 25-07-2019 18:55:00 38.4 C 29 % 17.2 C
229 25-07-2019 19:00:00 38.3 C 25 % 14.8 C
230 25-07-2019 19:05:00 38.2 C 31 % 18.09 C
231 25-07-2019 19:10:00 38 C 28 % 16.31 C
232 25-07-2019 19:15:00 37.8 C 33 % 18.74 C
233 25-07-2019 19:20:00 37.4 C 32 % 17.91 C
234 25-07-2019 19:25:00 37 C 33 % 18.05 C
235 25-07-2019 19:30:00 36.6 C 33 % 17.7 C
236 25-07-2019 19:35:00 36.2 C 35 % 18.29 C
237 25-07-2019 19:40:00 35.7 C 36 % 18.3 C
238 25-07-2019 19:45:00 35.3 C 39 % 19.23 C
239 25-07-2019 19:50:00 34.9 C 38 % 18.46 C
240 25-07-2019 19:55:00 34.6 C 38 % 18.2 C
241 25-07-2019 20:00:00 34.3 C 41 % 19.15 C
242 25-07-2019 20:05:00 33.9 C 41 % 18.79 C
243 25-07-2019 20:10:00 33.7 C 40 % 18.22 C
244 25-07-2019 20:15:00 33.4 C 40 % 17.95 C
245 25-07-2019 20:20:00 33.2 C 42 % 18.55 C
246 25-07-2019 20:25:00 32.9 C 41 % 17.9 C
247 25-07-2019 20:30:00 32.7 C 42 % 18.1 C
248 25-07-2019 20:35:00 32.4 C 42 % 17.83 C
249 25-07-2019 20:40:00 32.2 C 43 % 18.03 C
250 25-07-2019 20:45:00 31.9 C 43 % 17.76 C
Sensor: Nr:Datum:Temp:Feuchte:Taupunkt:
Aussen-T/F 251 25-07-2019 20:50:00 31.7 C 44 % 17.94 C
252 25-07-2019 20:55:00 31.5 C 43 % 17.4 C
253 25-07-2019 21:00:00 31.3 C 44 % 17.58 C
254 25-07-2019 21:05:00 31.1 C 44 % 17.4 C
255 25-07-2019 21:10:00 30.9 C 45 % 17.58 C
256 25-07-2019 21:15:00 30.7 C 44 % 17.04 C
257 25-07-2019 21:20:00 30.5 C 44 % 16.86 C
258 25-07-2019 21:25:00 30.3 C 45 % 17.04 C
259 25-07-2019 21:30:00 30.2 C 45 % 16.95 C
260 25-07-2019 21:35:00 30.1 C 45 % 16.86 C
261 25-07-2019 21:40:00 29.9 C 45 % 16.68 C
262 25-07-2019 21:45:00 29.8 C 45 % 16.59 C
263 25-07-2019 21:50:00 29.7 C 45 % 16.5 C
264 25-07-2019 21:55:00 29.6 C 45 % 16.41 C
265 25-07-2019 22:00:00 29.4 C 45 % 16.23 C
266 25-07-2019 22:05:00 29.3 C 46 % 16.48 C
267 25-07-2019 22:10:00 29.2 C 46 % 16.39 C
268 25-07-2019 22:15:00 29.1 C 47 % 16.64 C
269 25-07-2019 22:20:00 28.9 C 46 % 16.12 C
270 25-07-2019 22:25:00 28.8 C 48 % 16.69 C
271 25-07-2019 22:30:00 28.7 C 48 % 16.6 C
272 25-07-2019 22:35:00 28.5 C 48 % 16.42 C
273 25-07-2019 22:40:00 28.4 C 48 % 16.33 C
274 25-07-2019 22:45:00 28.3 C 48 % 16.24 C
275 25-07-2019 22:50:00 28.3 C 49 % 16.56 C
Sensor: Nr:Datum:Temp:Feuchte:Taupunkt:
Aussen-T/F 276 25-07-2019 22:55:00 28.2 C 48 % 16.15 C
277 25-07-2019 23:00:00 28.1 C 49 % 16.38 C
278 25-07-2019 23:05:00 28 C 48 % 15.97 C
279 25-07-2019 23:10:00 27.9 C 49 % 16.2 C
280 25-07-2019 23:15:00 27.8 C 48 % 15.78 C
281 25-07-2019 23:20:00 27.8 C 49 % 16.11 C
282 25-07-2019 23:25:00 27.7 C 50 % 16.33 C
283 25-07-2019 23:30:00 27.6 C 49 % 15.92 C
284 25-07-2019 23:35:00 27.4 C 50 % 16.06 C
285 25-07-2019 23:40:00 27.3 C 50 % 15.97 C
286 25-07-2019 23:45:00 27.2 C 50 % 15.87 C
287 25-07-2019 23:50:00 27.1 C 51 % 16.09 C
288 25-07-2019 23:55:00 26.9 C 53 % 16.51 C
289 26-07-2019 00:00:00 26.8 C 53 % 16.42 C
290 26-07-2019 00:05:00 26.7 C 53 % 16.33 C
291 26-07-2019 00:10:00 26.5 C 52 % 15.84 C
292 26-07-2019 00:15:00 26.4 C 53 % 16.05 C
293 26-07-2019 00:20:00 26.3 C 53 % 15.96 C
294 26-07-2019 00:25:00 26.2 C 54 % 16.16 C
295 26-07-2019 00:30:00 26.1 C 54 % 16.07 C
296 26-07-2019 00:35:00 26 C 53 % 15.68 C
297 26-07-2019 00:40:00 25.9 C 54 % 15.88 C
298 26-07-2019 00:45:00 25.9 C 54 % 15.88 C
299 26-07-2019 00:50:00 25.8 C 54 % 15.79 C
300 26-07-2019 00:55:00 25.7 C 54 % 15.7 C
Sensor: Nr:Datum:Temp:Feuchte:Taupunkt:
Aussen-T/F 301 26-07-2019 01:00:00 25.6 C 54 % 15.6 C
302 26-07-2019 01:05:00 25.5 C 55 % 15.8 C
303 26-07-2019 01:10:00 25.4 C 54 % 15.42 C
304 26-07-2019 01:15:00 25.3 C 56 % 15.89 C
305 26-07-2019 01:20:00 25.2 C 56 % 15.8 C
306 26-07-2019 01:25:00 25.2 C 57 % 16.08 C
307 26-07-2019 01:30:00 25.1 C 56 % 15.71 C
308 26-07-2019 01:35:00 24.9 C 58 % 16.07 C
309 26-07-2019 01:40:00 24.8 C 59 % 16.24 C
310 26-07-2019 01:45:00 24.6 C 60 % 16.32 C
311 26-07-2019 01:50:00 24.3 C 60 % 16.04 C
312 26-07-2019 01:55:00 24.1 C 60 % 15.85 C
313 26-07-2019 02:00:00 23.8 C 62 % 16.08 C
314 26-07-2019 02:05:00 23.6 C 64 % 16.39 C
315 26-07-2019 02:10:00 23.3 C 65 % 16.35 C
316 26-07-2019 02:15:00 23 C 66 % 16.31 C
317 26-07-2019 02:20:00 22.8 C 67 % 16.35 C
318 26-07-2019 02:25:00 22.6 C 68 % 16.39 C
319 26-07-2019 02:30:00 22.3 C 69 % 16.34 C
320 26-07-2019 02:35:00 22.2 C 69 % 16.24 C
321 26-07-2019 02:40:00 21.9 C 69 % 15.96 C
322 26-07-2019 02:45:00 21.7 C 68 % 15.54 C
323 26-07-2019 02:50:00 21.6 C 69 % 15.67 C
324 26-07-2019 02:55:00 21.4 C 68 % 15.25 C
325 26-07-2019 03:00:00 21.3 C 70 % 15.61 C
Sensor: Nr:Datum:Temp:Feuchte:Taupunkt:
Aussen-T/F 326 26-07-2019 03:05:00 21.2 C 71 % 15.73 C
327 26-07-2019 03:10:00 21.2 C 71 % 15.73 C
328 26-07-2019 03:15:00 21.1 C 70 % 15.42 C
329 26-07-2019 03:20:00 21.1 C 71 % 15.64 C
330 26-07-2019 03:25:00 21 C 71 % 15.54 C
331 26-07-2019 03:30:00 21 C 72 % 15.76 C
332 26-07-2019 03:35:00 20.9 C 72 % 15.66 C
333 26-07-2019 03:40:00 20.8 C 72 % 15.57 C
334 26-07-2019 03:45:00 20.8 C 72 % 15.57 C
335 26-07-2019 03:50:00 20.8 C 74 % 16 C
336 26-07-2019 03:55:00 20.7 C 74 % 15.9 C
337 26-07-2019 04:00:00 20.7 C 74 % 15.9 C
338 26-07-2019 04:05:00 20.6 C 75 % 16.01 C
339 26-07-2019 04:10:00 20.4 C 75 % 15.82 C
340 26-07-2019 04:15:00 20.3 C 75 % 15.72 C
341 26-07-2019 04:20:00 20.3 C 76 % 15.93 C
342 26-07-2019 04:25:00 20.2 C 77 % 16.04 C
343 26-07-2019 04:30:00 20.1 C 77 % 15.94 C
344 26-07-2019 04:35:00 19.9 C 77 % 15.75 C
345 26-07-2019 04:40:00 19.9 C 78 % 15.95 C
346 26-07-2019 04:45:00 19.8 C 78 % 15.85 C
347 26-07-2019 04:50:00 19.7 C 78 % 15.76 C
348 26-07-2019 04:55:00 19.6 C 79 % 15.86 C
349 26-07-2019 05:00:00 19.6 C 79 % 15.86 C
350 26-07-2019 05:05:00 19.5 C 78 % 15.56 C
Sensor: Nr:Datum:Temp:Feuchte:Taupunkt:
Aussen-T/F 351 26-07-2019 05:10:00 19.4 C 78 % 15.47 C
352 26-07-2019 05:15:00 19.3 C 78 % 15.37 C
353 26-07-2019 05:20:00 19.3 C 79 % 15.57 C
354 26-07-2019 05:25:00 19.3 C 78 % 15.37 C
355 26-07-2019 05:30:00 19.3 C 80 % 15.76 C
356 26-07-2019 05:35:00 19.3 C 80 % 15.76 C
357 26-07-2019 05:40:00 19.2 C 80 % 15.67 C
358 26-07-2019 05:45:00 19.2 C 80 % 15.67 C
359 26-07-2019 05:50:00 19.1 C 79 % 15.37 C
360 26-07-2019 05:55:00 19 C 79 % 15.28 C
361 26-07-2019 06:00:00 18.9 C 80 % 15.38 C
362 26-07-2019 06:05:00 19 C 79 % 15.28 C
363 26-07-2019 06:10:00 19 C 79 % 15.28 C
364 26-07-2019 06:15:00 18.9 C 80 % 15.38 C
365 26-07-2019 06:20:00 18.9 C 80 % 15.38 C
366 26-07-2019 06:25:00 18.9 C 80 % 15.38 C
367 26-07-2019 06:30:00 18.9 C 80 % 15.38 C
368 26-07-2019 06:35:00 18.9 C 81 % 15.57 C
369 26-07-2019 06:40:00 18.9 C 81 % 15.57 C
370 26-07-2019 06:45:00 19 C 81 % 15.67 C
371 26-07-2019 06:50:00 19.1 C 81 % 15.76 C
372 26-07-2019 06:55:00 19.1 C 82 % 15.96 C
373 26-07-2019 07:00:00 19.2 C 83 % 16.24 C
374 26-07-2019 07:05:00 19.3 C 83 % 16.34 C
375 26-07-2019 07:10:00 19.3 C 83 % 16.34 C
Sensor: Nr:Datum:Temp:Feuchte:Taupunkt:
Aussen-T/F 376 26-07-2019 07:15:00 19.4 C 83 % 16.44 C
377 26-07-2019 07:20:00 19.4 C 82 % 16.25 C
378 26-07-2019 07:25:00 19.5 C 83 % 16.54 C
379 26-07-2019 07:30:00 19.6 C 83 % 16.63 C
380 26-07-2019 07:35:00 19.7 C 83 % 16.73 C
381 26-07-2019 07:40:00 19.8 C 83 % 16.83 C
382 26-07-2019 07:45:00 19.9 C 82 % 16.74 C
383 26-07-2019 07:50:00 20.1 C 81 % 16.74 C
384 26-07-2019 07:55:00 20.2 C 81 % 16.84 C
385 26-07-2019 08:00:00 20.4 C 81 % 17.03 C
386 26-07-2019 08:05:00 20.5 C 82 % 17.32 C
387 26-07-2019 08:10:00 20.6 C 81 % 17.22 C
388 26-07-2019 08:15:00 20.7 C 82 % 17.52 C
389 26-07-2019 08:20:00 20.8 C 81 % 17.42 C
390 26-07-2019 08:25:00 20.9 C 80 % 17.32 C
391 26-07-2019 08:30:00 21.1 C 79 % 17.32 C
392 26-07-2019 08:35:00 21.3 C 79 % 17.51 C
393 26-07-2019 08:40:00 21.5 C 78 % 17.5 C
394 26-07-2019 08:45:00 21.7 C 79 % 17.9 C
395 26-07-2019 08:50:00 21.9 C 80 % 18.29 C
396 26-07-2019 08:55:00 21.9 C 78 % 17.89 C
397 26-07-2019 09:00:00 22.1 C 76 % 17.67 C
398 26-07-2019 09:05:00 22.3 C 76 % 17.86 C
399 26-07-2019 09:10:00 22.4 C 74 % 17.54 C
400 26-07-2019 09:15:00 22.7 C 73 % 17.61 C
Sensor: Nr:Datum:Temp:Feuchte:Taupunkt:
Aussen-T/F 401 26-07-2019 09:20:00 22.9 C 74 % 18.02 C
402 26-07-2019 09:25:00 23.1 C 70 % 17.33 C
403 26-07-2019 09:30:00 23.4 C 70 % 17.62 C
404 26-07-2019 09:35:00 23.7 C 67 % 17.21 C
405 26-07-2019 09:40:00 24.2 C 67 % 17.68 C
406 26-07-2019 09:45:00 24.6 C 66 % 17.83 C
407 26-07-2019 09:50:00 25 C 58 % 16.16 C
408 26-07-2019 09:55:00 25.7 C 60 % 17.35 C
409 26-07-2019 10:00:00 25.9 C 60 % 17.54 C
410 26-07-2019 10:05:00 26.3 C 58 % 17.38 C
411 26-07-2019 10:10:00 26.4 C 57 % 17.19 C
412 26-07-2019 10:15:00 26.8 C 55 % 17 C
413 26-07-2019 10:20:00 27.2 C 54 % 17.08 C
414 26-07-2019 10:25:00 27.6 C 48 % 15.6 C
415 26-07-2019 10:30:00 28.4 C 46 % 15.66 C
416 26-07-2019 10:35:00 29.1 C 46 % 16.3 C
417 26-07-2019 10:40:00 29.6 C 44 % 16.05 C
418 26-07-2019 10:45:00 30.1 C 43 % 16.14 C
419 26-07-2019 10:50:00 30.5 C 42 % 16.13 C
420 26-07-2019 10:55:00 30.8 C 41 % 16.02 C
421 26-07-2019 11:00:00 31 C 39 % 15.42 C
422 26-07-2019 11:05:00 31.2 C 39 % 15.6 C
423 26-07-2019 11:10:00 31.4 C 41 % 16.56 C
424 26-07-2019 11:15:00 31.5 C 40 % 16.26 C
425 26-07-2019 11:20:00 31.7 C 39 % 16.04 C
Sensor: Nr:Datum:Temp:Feuchte:Taupunkt:
Aussen-T/F 426 26-07-2019 11:25:00 31.9 C 40 % 16.62 C
427 26-07-2019 11:30:00 32.1 C 38 % 15.99 C
428 26-07-2019 11:35:00 32.3 C 40 % 16.97 C
429 26-07-2019 11:40:00 32.6 C 39 % 16.84 C
430 26-07-2019 11:45:00 32.8 C 37 % 16.19 C
431 26-07-2019 11:50:00 32.9 C 37 % 16.28 C
432 26-07-2019 11:55:00 33.2 C 37 % 16.54 C
433 26-07-2019 12:00:00 33.4 C 36 % 16.29 C
434 26-07-2019 12:05:00 33.6 C 35 % 16.02 C
435 26-07-2019 12:10:00 33.7 C 37 % 16.98 C
436 26-07-2019 12:15:00 33.8 C 35 % 16.19 C
437 26-07-2019 12:20:00 34.1 C 35 % 16.46 C
438 26-07-2019 12:25:00 34.2 C 36 % 16.99 C
439 26-07-2019 12:30:00 34.3 C 34 % 16.18 C
440 26-07-2019 12:35:00 34.5 C 34 % 16.35 C
441 26-07-2019 12:40:00 34.8 C 34 % 16.61 C
442 26-07-2019 12:45:00 35.1 C 33 % 16.4 C
443 26-07-2019 12:50:00 35.3 C 33 % 16.58 C
444 26-07-2019 12:55:00 35.4 C 32 % 16.18 C
445 26-07-2019 13:00:00 35.5 C 32 % 16.27 C
446 26-07-2019 13:05:00 35.6 C 31 % 15.86 C
447 26-07-2019 13:10:00 35.7 C 31 % 15.94 C
448 26-07-2019 13:15:00 35.7 C 32 % 16.44 C
449 26-07-2019 13:20:00 35.8 C 32 % 16.53 C
450 26-07-2019 13:25:00 35.8 C 31 % 16.03 C
Sensor: Nr:Datum:Temp:Feuchte:Taupunkt:
Aussen-T/F 451 26-07-2019 13:30:00 35.9 C 30 % 15.6 C
452 26-07-2019 13:35:00 36.1 C 31 % 16.29 C
453 26-07-2019 13:40:00 36.2 C 31 % 16.37 C
454 26-07-2019 13:45:00 36.4 C 31 % 16.54 C
455 26-07-2019 13:50:00 36.6 C 30 % 16.2 C
456 26-07-2019 13:55:00 36.8 C 29 % 15.84 C
457 26-07-2019 14:00:00 36.9 C 29 % 15.93 C
458 26-07-2019 14:05:00 36.9 C 28 % 15.38 C
459 26-07-2019 14:10:00 36.8 C 28 % 15.29 C
460 26-07-2019 14:15:00 36.9 C 28 % 15.38 C
461 26-07-2019 14:20:00 37.1 C 29 % 16.1 C
462 26-07-2019 14:25:00 37.4 C 27 % 15.24 C
463 26-07-2019 14:30:00 37.6 C 26 % 14.82 C
464 26-07-2019 14:35:00 37.8 C 26 % 14.99 C
465 26-07-2019 14:40:00 37.8 C 26 % 14.99 C
466 26-07-2019 14:45:00 37.7 C 24 % 13.67 C
467 26-07-2019 14:50:00 37.7 C 26 % 14.9 C
468 26-07-2019 14:55:00 37.7 C 24 % 13.67 C
469 26-07-2019 15:00:00 38.1 C 25 % 14.63 C
470 26-07-2019 15:05:00 38.3 C 25 % 14.8 C
471 26-07-2019 15:10:00 38.6 C 24 % 14.42 C
472 26-07-2019 15:15:00 38.7 C 25 % 15.13 C
473 26-07-2019 15:20:00 38.3 C 27 % 16 C
474 26-07-2019 15:25:00 37.3 C 30 % 16.8 C
475 26-07-2019 15:30:00 36.8 C 30 % 16.37 C
Sensor: Nr:Datum:Temp:Feuchte:Taupunkt:
Aussen-T/F 476 26-07-2019 15:35:00 36.3 C 31 % 16.46 C
477 26-07-2019 15:40:00 35.9 C 31 % 16.11 C
478 26-07-2019 15:45:00 35.6 C 32 % 16.35 C
479 26-07-2019 15:50:00 35.7 C 30 % 15.43 C
480 26-07-2019 15:55:00 35.6 C 30 % 15.34 C
481 26-07-2019 16:00:00 35.4 C 31 % 15.68 C
482 26-07-2019 16:05:00 35.3 C 32 % 16.09 C
483 26-07-2019 16:10:00 35.4 C 32 % 16.18 C
484 26-07-2019 16:15:00 35.4 C 31 % 15.68 C
485 26-07-2019 16:20:00 35.5 C 32 % 16.27 C
486 26-07-2019 16:25:00 35.6 C 37 % 18.65 C
487 26-07-2019 16:30:00 35.6 C 39 % 19.5 C
488 26-07-2019 16:35:00 35.6 C 40 % 19.91 C
489 26-07-2019 16:40:00 35.3 C 32 % 16.09 C
490 26-07-2019 16:45:00 34.9 C 34 % 16.7 C
491 26-07-2019 16:50:00 34.8 C 35 % 17.07 C
492 26-07-2019 16:55:00 34.6 C 33 % 15.97 C
493 26-07-2019 17:00:00 34.2 C 35 % 16.54 C
494 26-07-2019 17:05:00 34.1 C 42 % 19.35 C
495 26-07-2019 17:10:00 33.5 C 39 % 17.64 C
496 26-07-2019 17:15:00 32.9 C 40 % 17.51 C
497 26-07-2019 17:20:00 32.6 C 42 % 18.01 C
498 26-07-2019 17:25:00 32.4 C 44 % 18.57 C
499 26-07-2019 17:30:00 32.2 C 45 % 18.75 C
500 26-07-2019 17:35:00 31.9 C 46 % 18.83 C
Sensor: Nr:Datum:Temp:Feuchte:Taupunkt:
Aussen-T/F 501 26-07-2019 17:40:00 31.8 C 43 % 17.67 C
502 26-07-2019 17:45:00 31.7 C 44 % 17.94 C
503 26-07-2019 17:50:00 31.4 C 45 % 18.03 C
504 26-07-2019 17:55:00 31.3 C 44 % 17.58 C
505 26-07-2019 18:00:00 31.2 C 45 % 17.85 C
506 26-07-2019 18:05:00 31.1 C 45 % 17.76 C
507 26-07-2019 18:10:00 30.9 C 44 % 17.22 C
508 26-07-2019 18:15:00 30.9 C 44 % 17.22 C
509 26-07-2019 18:20:00 30.8 C 44 % 17.13 C
510 26-07-2019 18:25:00 30.7 C 45 % 17.4 C
511 26-07-2019 18:30:00 30.6 C 45 % 17.31 C
512 26-07-2019 18:35:00 30.3 C 46 % 17.39 C
513 26-07-2019 18:40:00 30.1 C 46 % 17.2 C
514 26-07-2019 18:45:00 29.7 C 46 % 16.84 C
515 26-07-2019 18:50:00 29.6 C 48 % 17.42 C
516 26-07-2019 18:55:00 29.4 C 48 % 17.24 C
517 26-07-2019 19:00:00 29.3 C 49 % 17.48 C
518 26-07-2019 19:05:00 29.3 C 50 % 17.8 C
519 26-07-2019 19:10:00 29.2 C 50 % 17.71 C
520 26-07-2019 19:15:00 29.1 C 50 % 17.61 C
521 26-07-2019 19:20:00 29.1 C 52 % 18.24 C
522 26-07-2019 19:25:00 28.9 C 51 % 17.74 C
523 26-07-2019 19:30:00 28.8 C 53 % 18.26 C
524 26-07-2019 19:35:00 28.7 C 53 % 18.17 C
525 26-07-2019 19:40:00 28.6 C 54 % 18.38 C
Sensor: Nr:Datum:Temp:Feuchte:Taupunkt:
Aussen-T/F 526 26-07-2019 19:45:00 28.4 C 54 % 18.19 C
527 26-07-2019 19:50:00 28.3 C 54 % 18.1 C
528 26-07-2019 19:55:00 28.2 C 56 % 18.59 C
529 26-07-2019 20:00:00 28.1 C 56 % 18.49 C
530 26-07-2019 20:05:00 28 C 56 % 18.4 C
531 26-07-2019 20:10:00 27.9 C 57 % 18.59 C
532 26-07-2019 20:15:00 27.8 C 57 % 18.5 C
533 26-07-2019 20:20:00 27.7 C 58 % 18.68 C
534 26-07-2019 20:25:00 27.6 C 57 % 18.31 C
535 26-07-2019 20:30:00 27.5 C 59 % 18.77 C
536 26-07-2019 20:35:00 27.4 C 57 % 18.13 C
537 26-07-2019 20:40:00 27.2 C 59 % 18.49 C
538 26-07-2019 20:45:00 27.1 C 59 % 18.4 C
539 26-07-2019 20:50:00 27.1 C 59 % 18.4 C
540 26-07-2019 20:55:00 26.9 C 59 % 18.21 C
541 26-07-2019 21:00:00 26.8 C 59 % 18.11 C
542 26-07-2019 21:05:00 26.7 C 59 % 18.02 C
543 26-07-2019 21:10:00 26.7 C 59 % 18.02 C
544 26-07-2019 21:15:00 26.6 C 60 % 18.2 C
545 26-07-2019 21:20:00 26.4 C 59 % 17.74 C
546 26-07-2019 21:25:00 26.3 C 59 % 17.65 C
547 26-07-2019 21:30:00 26.2 C 59 % 17.55 C
548 26-07-2019 21:35:00 26.2 C 59 % 17.55 C
549 26-07-2019 21:40:00 26.1 C 59 % 17.46 C
550 26-07-2019 21:45:00 26.1 C 60 % 17.73 C
Sensor: Nr:Datum:Temp:Feuchte:Taupunkt:
Aussen-T/F 551 26-07-2019 21:50:00 26 C 60 % 17.63 C
552 26-07-2019 21:55:00 25.9 C 60 % 17.54 C
553 26-07-2019 22:00:00 25.9 C 60 % 17.54 C
554 26-07-2019 22:05:00 25.8 C 61 % 17.71 C
555 26-07-2019 22:10:00 25.7 C 61 % 17.61 C
556 26-07-2019 22:15:00 25.7 C 61 % 17.61 C
557 26-07-2019 22:20:00 25.7 C 62 % 17.87 C
558 26-07-2019 22:25:00 25.7 C 62 % 17.87 C
559 26-07-2019 22:30:00 25.6 C 63 % 18.03 C
560 26-07-2019 22:35:00 25.4 C 63 % 17.84 C
561 26-07-2019 22:40:00 25.3 C 62 % 17.5 C
562 26-07-2019 22:45:00 25.2 C 63 % 17.65 C
563 26-07-2019 22:50:00 25.1 C 63 % 17.56 C
564 26-07-2019 22:55:00 24.9 C 64 % 17.62 C
565 26-07-2019 23:00:00 24.8 C 65 % 17.77 C
566 26-07-2019 23:05:00 24.8 C 65 % 17.77 C
567 26-07-2019 23:10:00 24.7 C 66 % 17.92 C
568 26-07-2019 23:15:00 24.6 C 66 % 17.83 C
569 26-07-2019 23:20:00 24.5 C 67 % 17.97 C
570 26-07-2019 23:25:00 24.4 C 67 % 17.87 C
571 26-07-2019 23:30:00 24.3 C 67 % 17.78 C
572 26-07-2019 23:35:00 24.2 C 67 % 17.68 C
573 26-07-2019 23:40:00 24.2 C 67 % 17.68 C
574 26-07-2019 23:45:00 24.1 C 68 % 17.82 C
575 26-07-2019 23:50:00 23.9 C 68 % 17.63 C
Sensor: Nr:Datum:Temp:Feuchte:Taupunkt:
Aussen-T/F 576 26-07-2019 23:55:00 23.8 C 68 % 17.54 C
577 27-07-2019 00:00:00 23.6 C 69 % 17.58 C
578 27-07-2019 00:05:00 23.4 C 69 % 17.39 C
579 27-07-2019 00:10:00 23.3 C 69 % 17.29 C
580 27-07-2019 00:15:00 23.3 C 70 % 17.52 C
581 27-07-2019 00:20:00 23.2 C 70 % 17.42 C
582 27-07-2019 00:25:00 23.2 C 70 % 17.42 C
583 27-07-2019 00:30:00 23.1 C 70 % 17.33 C
584 27-07-2019 00:35:00 23.1 C 71 % 17.55 C
585 27-07-2019 00:40:00 23 C 71 % 17.46 C
586 27-07-2019 00:45:00 22.9 C 71 % 17.36 C
587 27-07-2019 00:50:00 22.9 C 71 % 17.36 C
588 27-07-2019 00:55:00 22.8 C 72 % 17.49 C
589 27-07-2019 01:00:00 22.8 C 72 % 17.49 C
590 27-07-2019 01:05:00 22.7 C 72 % 17.39 C
591 27-07-2019 01:10:00 22.7 C 73 % 17.61 C
592 27-07-2019 01:15:00 22.6 C 73 % 17.51 C
593 27-07-2019 01:20:00 22.7 C 74 % 17.83 C
594 27-07-2019 01:25:00 22.7 C 73 % 17.61 C
595 27-07-2019 01:30:00 22.7 C 73 % 17.61 C
596 27-07-2019 01:35:00 22.7 C 73 % 17.61 C
597 27-07-2019 01:40:00 22.7 C 74 % 17.83 C
598 27-07-2019 01:45:00 22.6 C 74 % 17.73 C
599 27-07-2019 01:50:00 22.4 C 74 % 17.54 C
600 27-07-2019 01:55:00 22.3 C 74 % 17.44 C
Sensor: Nr:Datum:Temp:Feuchte:Taupunkt:
Aussen-T/F 601 27-07-2019 02:00:00 22.3 C 74 % 17.44 C
602 27-07-2019 02:05:00 22.3 C 73 % 17.23 C
603 27-07-2019 02:10:00 22.3 C 73 % 17.23 C
604 27-07-2019 02:15:00 22.3 C 75 % 17.65 C
605 27-07-2019 02:20:00 22.4 C 75 % 17.75 C
606 27-07-2019 02:25:00 22.4 C 76 % 17.96 C
607 27-07-2019 02:30:00 22.4 C 76 % 17.96 C
608 27-07-2019 02:35:00 22.4 C 76 % 17.96 C
609 27-07-2019 02:40:00 22.3 C 76 % 17.86 C
610 27-07-2019 02:45:00 22.3 C 76 % 17.86 C
611 27-07-2019 02:50:00 22.3 C 76 % 17.86 C
612 27-07-2019 02:55:00 22.3 C 76 % 17.86 C
613 27-07-2019 03:00:00 22.3 C 76 % 17.86 C
614 27-07-2019 03:05:00 22.3 C 76 % 17.86 C
615 27-07-2019 03:10:00 22.3 C 74 % 17.44 C
616 27-07-2019 03:15:00 22.4 C 74 % 17.54 C
617 27-07-2019 03:20:00 22.5 C 73 % 17.42 C
618 27-07-2019 03:25:00 22.6 C 72 % 17.3 C
619 27-07-2019 03:30:00 22.6 C 71 % 17.07 C
620 27-07-2019 03:35:00 22.8 C 69 % 16.82 C
621 27-07-2019 03:40:00 23.2 C 75 % 18.52 C
622 27-07-2019 03:45:00 23.1 C 78 % 19.05 C
623 27-07-2019 03:50:00 22.7 C 79 % 18.87 C
624 27-07-2019 03:55:00 22.3 C 80 % 18.68 C
625 27-07-2019 04:00:00 21.9 C 83 % 18.88 C
Sensor: Nr:Datum:Temp:Feuchte:Taupunkt:
Aussen-T/F 626 27-07-2019 04:05:00 21.7 C 84 % 18.88 C
627 27-07-2019 04:10:00 21.4 C 85 % 18.77 C
628 27-07-2019 04:15:00 21.1 C 85 % 18.48 C
629 27-07-2019 04:20:00 20.9 C 86 % 18.47 C
630 27-07-2019 04:25:00 20.8 C 87 % 18.56 C
631 27-07-2019 04:30:00 20.7 C 87 % 18.46 C
632 27-07-2019 04:35:00 20.6 C 87 % 18.36 C
633 27-07-2019 04:40:00 20.5 C 88 % 18.44 C
634 27-07-2019 04:45:00 20.4 C 88 % 18.34 C
635 27-07-2019 04:50:00 20.4 C 88 % 18.34 C
636 27-07-2019 04:55:00 20.4 C 89 % 18.53 C
637 27-07-2019 05:00:00 20.4 C 88 % 18.34 C
638 27-07-2019 05:05:00 20.4 C 88 % 18.34 C
639 27-07-2019 05:10:00 20.3 C 89 % 18.43 C
640 27-07-2019 05:15:00 20.3 C 89 % 18.43 C
641 27-07-2019 05:20:00 20.3 C 89 % 18.43 C
642 27-07-2019 05:25:00 20.3 C 89 % 18.43 C
643 27-07-2019 05:30:00 20.2 C 89 % 18.33 C
644 27-07-2019 05:35:00 20.3 C 89 % 18.43 C
645 27-07-2019 05:40:00 20.2 C 89 % 18.33 C
646 27-07-2019 05:45:00 20.2 C 89 % 18.33 C
647 27-07-2019 05:50:00 20.2 C 89 % 18.33 C
648 27-07-2019 05:55:00 20.2 C 88 % 18.15 C
649 27-07-2019 06:00:00 20.2 C 88 % 18.15 C
650 27-07-2019 06:05:00 20.3 C 89 % 18.43 C
Sensor: Nr:Datum:Temp:Feuchte:Taupunkt:
Aussen-T/F 651 27-07-2019 06:10:00 20.3 C 88 % 18.25 C
652 27-07-2019 06:15:00 20.3 C 89 % 18.43 C
653 27-07-2019 06:20:00 20.3 C 88 % 18.25 C
654 27-07-2019 06:25:00 20.4 C 89 % 18.53 C
655 27-07-2019 06:30:00 20.6 C 89 % 18.72 C
656 27-07-2019 06:35:00 20.7 C 89 % 18.82 C
657 27-07-2019 06:40:00 20.7 C 88 % 18.64 C
658 27-07-2019 06:45:00 20.8 C 88 % 18.74 C
659 27-07-2019 06:50:00 20.8 C 89 % 18.92 C
660 27-07-2019 06:55:00 20.9 C 89 % 19.02 C
661 27-07-2019 07:00:00 20.9 C 89 % 19.02 C
662 27-07-2019 07:05:00 21 C 89 % 19.12 C
663 27-07-2019 07:10:00 20.9 C 88 % 18.84 C
664 27-07-2019 07:15:00 21 C 89 % 19.12 C
665 27-07-2019 07:20:00 21.1 C 88 % 19.03 C
666 27-07-2019 07:25:00 21.2 C 88 % 19.13 C
667 27-07-2019 07:30:00 21.3 C 89 % 19.41 C
668 27-07-2019 07:35:00 21.4 C 89 % 19.51 C
669 27-07-2019 07:40:00 21.4 C 88 % 19.33 C
670 27-07-2019 07:45:00 21.5 C 88 % 19.43 C
671 27-07-2019 07:50:00 21.6 C 87 % 19.34 C
672 27-07-2019 07:55:00 21.7 C 86 % 19.25 C
673 27-07-2019 08:00:00 21.8 C 86 % 19.35 C
674 27-07-2019 08:05:00 21.9 C 86 % 19.45 C
675 27-07-2019 08:10:00 22.1 C 86 % 19.65 C
Sensor: Nr:Datum:Temp:Feuchte:Taupunkt:
Aussen-T/F 676 27-07-2019 08:15:00 22.1 C 84 % 19.27 C
677 27-07-2019 08:20:00 22.2 C 83 % 19.17 C
678 27-07-2019 08:25:00 22.3 C 82 % 19.08 C
679 27-07-2019 08:30:00 22.5 C 81 % 19.08 C
680 27-07-2019 08:35:00 22.8 C 80 % 19.17 C
681 27-07-2019 08:40:00 23 C 78 % 18.96 C
682 27-07-2019 08:45:00 23.2 C 78 % 19.15 C
683 27-07-2019 08:50:00 23.4 C 77 % 19.14 C
684 27-07-2019 08:55:00 23.6 C 76 % 19.12 C
685 27-07-2019 09:00:00 23.8 C 76 % 19.31 C
686 27-07-2019 09:05:00 24.1 C 76 % 19.6 C
687 27-07-2019 09:10:00 24.3 C 76 % 19.8 C
688 27-07-2019 09:15:00 24.4 C 74 % 19.46 C
689 27-07-2019 09:20:00 24.6 C 73 % 19.44 C
690 27-07-2019 09:25:00 24.8 C 73 % 19.63 C
691 27-07-2019 09:30:00 24.9 C 73 % 19.72 C
692 27-07-2019 09:35:00 25.1 C 73 % 19.92 C
693 27-07-2019 09:40:00 25.1 C 72 % 19.69 C
694 27-07-2019 09:45:00 25.2 C 72 % 19.79 C
695 27-07-2019 09:50:00 25.2 C 72 % 19.79 C
696 27-07-2019 09:55:00 25.2 C 72 % 19.79 C
697 27-07-2019 10:00:00 25.2 C 72 % 19.79 C
698 27-07-2019 10:05:00 25.3 C 71 % 19.66 C
699 27-07-2019 10:10:00 25.3 C 71 % 19.66 C
700 27-07-2019 10:15:00 25.3 C 80 % 21.6 C
Sensor: Nr:Datum:Temp:Feuchte:Taupunkt:
Aussen-T/F 701 27-07-2019 10:20:00 25 C 82 % 21.71 C
702 27-07-2019 10:25:00 24.7 C 84 % 21.81 C
703 27-07-2019 10:30:00 24.4 C 85 % 21.71 C
704 27-07-2019 10:35:00 24.2 C 86 % 21.71 C
705 27-07-2019 10:40:00 24.1 C 87 % 21.8 C
706 27-07-2019 10:45:00 24.1 C 88 % 21.99 C
707 27-07-2019 10:50:00 24.1 C 87 % 21.8 C
708 27-07-2019 10:55:00 24 C 87 % 21.7 C
709 27-07-2019 11:00:00 24 C 88 % 21.89 C
710 27-07-2019 11:05:00 24.1 C 88 % 21.99 C
711 27-07-2019 11:10:00 24.1 C 88 % 21.99 C
712 27-07-2019 11:15:00 24.1 C 88 % 21.99 C
713 27-07-2019 11:20:00 24.2 C 88 % 22.08 C
714 27-07-2019 11:25:00 24.2 C 88 % 22.08 C
715 27-07-2019 11:30:00 24.2 C 87 % 21.9 C
716 27-07-2019 11:35:00 24 C 85 % 21.32 C
717 27-07-2019 11:40:00 23.9 C 85 % 21.22 C
718 27-07-2019 11:45:00 23.7 C 85 % 21.03 C
719 27-07-2019 11:50:00 23.5 C 84 % 20.64 C
720 27-07-2019 11:55:00 23.3 C 85 % 20.63 C
721 27-07-2019 12:00:00 23.2 C 85 % 20.54 C
722 27-07-2019 12:05:00 23.2 C 87 % 20.91 C
723 27-07-2019 12:10:00 23.2 C 88 % 21.1 C
724 27-07-2019 12:15:00 23.2 C 88 % 21.1 C
725 27-07-2019 12:20:00 23.2 C 86 % 20.73 C
Sensor: Nr:Datum:Temp:Feuchte:Taupunkt:
Aussen-T/F 726 27-07-2019 12:25:00 23.3 C 85 % 20.63 C
727 27-07-2019 12:30:00 23.5 C 84 % 20.64 C
728 27-07-2019 12:35:00 23.8 C 81 % 20.34 C
729 27-07-2019 12:40:00 24.1 C 80 % 20.43 C
730 27-07-2019 12:45:00 24.4 C 82 % 21.12 C
731 27-07-2019 12:50:00 24.8 C 78 % 20.7 C
732 27-07-2019 12:55:00 25.1 C 78 % 20.99 C
733 27-07-2019 13:00:00 25.3 C 75 % 20.55 C
734 27-07-2019 13:05:00 25.5 C 76 % 20.95 C
735 27-07-2019 13:10:00 25.7 C 74 % 20.71 C
736 27-07-2019 13:15:00 26 C 75 % 21.22 C
737 27-07-2019 13:20:00 26.2 C 74 % 21.2 C
738 27-07-2019 13:25:00 26.2 C 74 % 21.2 C
739 27-07-2019 13:30:00 26.1 C 75 % 21.32 C
740 27-07-2019 13:35:00 26.2 C 75 % 21.41 C
741 27-07-2019 13:40:00 26.2 C 74 % 21.2 C
742 27-07-2019 13:45:00 26.2 C 72 % 20.75 C
743 27-07-2019 13:50:00 26.2 C 70 % 20.29 C
744 27-07-2019 13:55:00 26.2 C 72 % 20.75 C
745 27-07-2019 14:00:00 26.2 C 69 % 20.06 C
746 27-07-2019 14:05:00 26.1 C 70 % 20.2 C
747 27-07-2019 14:10:00 25.9 C 70 % 20.01 C
748 27-07-2019 14:15:00 25.9 C 68 % 19.54 C
749 27-07-2019 14:20:00 25.8 C 70 % 19.91 C
750 27-07-2019 14:25:00 25.7 C 69 % 19.58 C
Sensor: Nr:Datum:Temp:Feuchte:Taupunkt:
Aussen-T/F 751 27-07-2019 14:30:00 25.6 C 71 % 19.95 C
752 27-07-2019 14:35:00 25.5 C 71 % 19.85 C
753 27-07-2019 14:40:00 25.5 C 73 % 20.3 C
754 27-07-2019 14:45:00 25.5 C 73 % 20.3 C
755 27-07-2019 14:50:00 25.5 C 75 % 20.74 C
756 27-07-2019 14:55:00 25.5 C 74 % 20.52 C
757 27-07-2019 15:00:00 25.3 C 74 % 20.33 C
758 27-07-2019 15:05:00 25.1 C 74 % 20.14 C
759 27-07-2019 15:10:00 24.8 C 74 % 19.85 C
760 27-07-2019 15:15:00 24.7 C 75 % 19.97 C
761 27-07-2019 15:20:00 24.7 C 75 % 19.97 C
762 27-07-2019 15:25:00 24.8 C 75 % 20.06 C
763 27-07-2019 15:30:00 24.8 C 74 % 19.85 C
764 27-07-2019 15:35:00 25 C 74 % 20.04 C
765 27-07-2019 15:40:00 25.1 C 74 % 20.14 C
766 27-07-2019 15:45:00 25.2 C 73 % 20.01 C
767 27-07-2019 15:50:00 25.4 C 73 % 20.21 C
768 27-07-2019 15:55:00 25.6 C 74 % 20.62 C
769 27-07-2019 16:00:00 25.8 C 72 % 20.37 C
770 27-07-2019 16:05:00 26.1 C 70 % 20.2 C
771 27-07-2019 16:10:00 26.2 C 68 % 19.82 C
772 27-07-2019 16:15:00 26.2 C 67 % 19.59 C
773 27-07-2019 16:20:00 26.2 C 68 % 19.82 C
774 27-07-2019 16:25:00 26.3 C 68 % 19.92 C
775 27-07-2019 16:30:00 26.3 C 67 % 19.68 C
Sensor: Nr:Datum:Temp:Feuchte:Taupunkt:
Aussen-T/F 776 27-07-2019 16:35:00 26.2 C 67 % 19.59 C
777 27-07-2019 16:40:00 25.9 C 68 % 19.54 C
778 27-07-2019 16:45:00 25.7 C 67 % 19.11 C
779 27-07-2019 16:50:00 25.5 C 69 % 19.39 C
780 27-07-2019 16:55:00 25.2 C 71 % 19.56 C
781 27-07-2019 17:00:00 24.9 C 73 % 19.72 C
782 27-07-2019 17:05:00 24.6 C 74 % 19.66 C
783 27-07-2019 17:10:00 24.5 C 76 % 19.99 C
784 27-07-2019 17:15:00 24.5 C 77 % 20.2 C
785 27-07-2019 17:20:00 24.5 C 77 % 20.2 C
786 27-07-2019 17:25:00 24.5 C 77 % 20.2 C
787 27-07-2019 17:30:00 24.4 C 76 % 19.89 C
788 27-07-2019 17:35:00 24.4 C 76 % 19.89 C
789 27-07-2019 17:40:00 24.4 C 77 % 20.1 C
790 27-07-2019 17:45:00 24.4 C 76 % 19.89 C
791 27-07-2019 17:50:00 24.4 C 76 % 19.89 C
792 27-07-2019 17:55:00 24.4 C 76 % 19.89 C
793 27-07-2019 18:00:00 24.4 C 77 % 20.1 C
794 27-07-2019 18:05:00 24.4 C 77 % 20.1 C
795 27-07-2019 18:10:00 24.4 C 76 % 19.89 C
796 27-07-2019 18:15:00 24.6 C 77 % 20.3 C
797 27-07-2019 18:20:00 24.8 C 76 % 20.28 C
798 27-07-2019 18:25:00 25.1 C 75 % 20.35 C
799 27-07-2019 18:30:00 25.4 C 75 % 20.64 C
800 27-07-2019 18:35:00 25.3 C 75 % 20.55 C
Sensor: Nr:Datum:Temp:Feuchte:Taupunkt:
Aussen-T/F 801 27-07-2019 18:40:00 25.3 C 75 % 20.55 C
802 27-07-2019 18:45:00 25.2 C 75 % 20.45 C
803 27-07-2019 18:50:00 25.1 C 75 % 20.35 C
804 27-07-2019 18:55:00 24.9 C 76 % 20.38 C
805 27-07-2019 19:00:00 24.7 C 77 % 20.39 C
806 27-07-2019 19:05:00 24.5 C 77 % 20.2 C
807 27-07-2019 19:10:00 24.3 C 76 % 19.8 C
808 27-07-2019 19:15:00 24.1 C 77 % 19.81 C
809 27-07-2019 19:20:00 23.9 C 79 % 20.03 C
810 27-07-2019 19:25:00 23.8 C 81 % 20.34 C
811 27-07-2019 19:30:00 23.7 C 82 % 20.44 C
812 27-07-2019 19:35:00 23.6 C 83 % 20.54 C
813 27-07-2019 19:40:00 23.4 C 84 % 20.54 C
814 27-07-2019 19:45:00 23.4 C 84 % 20.54 C
815 27-07-2019 19:50:00 23.4 C 85 % 20.73 C
816 27-07-2019 19:55:00 23.3 C 84 % 20.44 C
817 27-07-2019 20:00:00 23.2 C 84 % 20.34 C
818 27-07-2019 20:05:00 23.1 C 85 % 20.44 C
819 27-07-2019 20:10:00 23.1 C 85 % 20.44 C
820 27-07-2019 20:15:00 23 C 85 % 20.34 C
821 27-07-2019 20:20:00 23 C 85 % 20.34 C
822 27-07-2019 20:25:00 22.9 C 85 % 20.24 C
823 27-07-2019 20:30:00 22.8 C 85 % 20.14 C
824 27-07-2019 20:35:00 22.8 C 85 % 20.14 C
825 27-07-2019 20:40:00 22.8 C 85 % 20.14 C
Sensor: Nr:Datum:Temp:Feuchte:Taupunkt:
Aussen-T/F 826 27-07-2019 20:45:00 22.7 C 85 % 20.05 C
827 27-07-2019 20:50:00 22.6 C 85 % 19.95 C
828 27-07-2019 20:55:00 22.6 C 85 % 19.95 C
829 27-07-2019 21:00:00 22.4 C 85 % 19.75 C
830 27-07-2019 21:05:00 22.4 C 85 % 19.75 C
831 27-07-2019 21:10:00 22.3 C 85 % 19.65 C
832 27-07-2019 21:15:00 22.3 C 85 % 19.65 C
833 27-07-2019 21:20:00 22.2 C 86 % 19.75 C
834 27-07-2019 21:25:00 22.1 C 86 % 19.65 C
835 27-07-2019 21:30:00 22.1 C 86 % 19.65 C
836 27-07-2019 21:35:00 21.9 C 86 % 19.45 C
837 27-07-2019 21:40:00 21.9 C 86 % 19.45 C
838 27-07-2019 21:45:00 21.8 C 86 % 19.35 C
839 27-07-2019 21:50:00 21.8 C 86 % 19.35 C
840 27-07-2019 21:55:00 21.7 C 86 % 19.25 C
841 27-07-2019 22:00:00 21.7 C 86 % 19.25 C
842 27-07-2019 22:05:00 21.6 C 87 % 19.34 C
843 27-07-2019 22:10:00 21.6 C 87 % 19.34 C
844 27-07-2019 22:15:00 21.6 C 87 % 19.34 C
845 27-07-2019 22:20:00 21.5 C 87 % 19.24 C
846 27-07-2019 22:25:00 21.4 C 87 % 19.15 C
847 27-07-2019 22:30:00 21.4 C 87 % 19.15 C
848 27-07-2019 22:35:00 21.4 C 87 % 19.15 C
849 27-07-2019 22:40:00 21.3 C 87 % 19.05 C
850 27-07-2019 22:45:00 21.3 C 88 % 19.23 C
Sensor: Nr:Datum:Temp:Feuchte:Taupunkt:
Aussen-T/F 851 27-07-2019 22:50:00 21.3 C 88 % 19.23 C
852 27-07-2019 22:55:00 21.3 C 88 % 19.23 C
853 27-07-2019 23:00:00 21.3 C 88 % 19.23 C
854 27-07-2019 23:05:00 21.2 C 88 % 19.13 C
855 27-07-2019 23:10:00 21.2 C 88 % 19.13 C
856 27-07-2019 23:15:00 21.2 C 89 % 19.31 C
857 27-07-2019 23:20:00 21.2 C 89 % 19.31 C
858 27-07-2019 23:25:00 21.2 C 89 % 19.31 C
859 27-07-2019 23:30:00 21.1 C 89 % 19.22 C
860 27-07-2019 23:35:00 21.1 C 89 % 19.22 C
861 27-07-2019 23:40:00 21.1 C 89 % 19.22 C
862 27-07-2019 23:45:00 21.1 C 89 % 19.22 C
863 27-07-2019 23:50:00 21 C 89 % 19.12 C
864 27-07-2019 23:55:00 21 C 89 % 19.12 C
865 28-07-2019 00:00:00 20.9 C 89 % 19.02 C
866 28-07-2019 00:05:00 20.9 C 90 % 19.2 C
867 28-07-2019 00:10:00 20.9 C 90 % 19.2 C
868 28-07-2019 00:15:00 20.9 C 90 % 19.2 C
869 28-07-2019 00:20:00 20.8 C 90 % 19.1 C
870 28-07-2019 00:25:00 20.8 C 90 % 19.1 C
871 28-07-2019 00:30:00 20.8 C 90 % 19.1 C
872 28-07-2019 00:35:00 20.8 C 90 % 19.1 C
873 28-07-2019 00:40:00 20.8 C 90 % 19.1 C
874 28-07-2019 00:45:00 20.8 C 90 % 19.1 C
875 28-07-2019 00:50:00 20.8 C 90 % 19.1 C
Sensor: Nr:Datum:Temp:Feuchte:Taupunkt:
Aussen-T/F 876 28-07-2019 00:55:00 20.8 C 90 % 19.1 C
877 28-07-2019 01:00:00 20.8 C 90 % 19.1 C
878 28-07-2019 01:05:00 20.7 C 90 % 19 C
879 28-07-2019 01:10:00 20.7 C 90 % 19 C
880 28-07-2019 01:15:00 20.7 C 90 % 19 C
881 28-07-2019 01:20:00 20.7 C 90 % 19 C
882 28-07-2019 01:25:00 20.7 C 90 % 19 C
883 28-07-2019 01:30:00 20.7 C 90 % 19 C
884 28-07-2019 01:35:00 20.7 C 90 % 19 C
885 28-07-2019 01:40:00 20.7 C 90 % 19 C
886 28-07-2019 01:45:00 20.7 C 90 % 19 C
887 28-07-2019 01:50:00 20.7 C 90 % 19 C
888 28-07-2019 01:55:00 20.7 C 90 % 19 C
889 28-07-2019 02:00:00 20.7 C 90 % 19 C
890 28-07-2019 02:05:00 20.7 C 90 % 19 C
891 28-07-2019 02:10:00 20.7 C 90 % 19 C
892 28-07-2019 02:15:00 20.7 C 90 % 19 C
893 28-07-2019 02:20:00 20.7 C 90 % 19 C
894 28-07-2019 02:25:00 20.7 C 90 % 19 C
895 28-07-2019 02:30:00 20.7 C 90 % 19 C
896 28-07-2019 02:35:00 20.7 C 90 % 19 C
897 28-07-2019 02:40:00 20.7 C 90 % 19 C
898 28-07-2019 02:45:00 20.7 C 90 % 19 C
899 28-07-2019 02:50:00 20.7 C 90 % 19 C
900 28-07-2019 02:55:00 20.7 C 90 % 19 C
Sensor: Nr:Datum:Temp:Feuchte:Taupunkt:
Aussen-T/F 901 28-07-2019 03:00:00 20.7 C 90 % 19 C
902 28-07-2019 03:05:00 20.7 C 90 % 19 C
903 28-07-2019 03:10:00 20.7 C 90 % 19 C
904 28-07-2019 03:15:00 20.7 C 90 % 19 C
905 28-07-2019 03:20:00 20.7 C 90 % 19 C
906 28-07-2019 03:25:00 20.7 C 90 % 19 C
907 28-07-2019 03:30:00 20.7 C 90 % 19 C
908 28-07-2019 03:35:00 20.7 C 90 % 19 C
909 28-07-2019 03:40:00 20.7 C 90 % 19 C
910 28-07-2019 03:45:00 20.7 C 90 % 19 C
911 28-07-2019 03:50:00 20.6 C 90 % 18.9 C
912 28-07-2019 03:55:00 20.6 C 90 % 18.9 C
913 28-07-2019 04:00:00 20.7 C 90 % 19 C
914 28-07-2019 04:05:00 20.6 C 90 % 18.9 C
915 28-07-2019 04:10:00 20.6 C 91 % 19.08 C
916 28-07-2019 04:15:00 20.6 C 91 % 19.08 C
917 28-07-2019 04:20:00 20.6 C 91 % 19.08 C
918 28-07-2019 04:25:00 20.6 C 91 % 19.08 C
919 28-07-2019 04:30:00 20.6 C 91 % 19.08 C
920 28-07-2019 04:35:00 20.6 C 91 % 19.08 C
921 28-07-2019 04:40:00 20.6 C 91 % 19.08 C
922 28-07-2019 04:45:00 20.6 C 91 % 19.08 C
923 28-07-2019 04:50:00 20.6 C 91 % 19.08 C
924 28-07-2019 04:55:00 20.6 C 91 % 19.08 C
925 28-07-2019 05:00:00 20.6 C 91 % 19.08 C
Sensor: Nr:Datum:Temp:Feuchte:Taupunkt:
Aussen-T/F 926 28-07-2019 05:05:00 20.6 C 91 % 19.08 C
927 28-07-2019 05:10:00 20.6 C 91 % 19.08 C
928 28-07-2019 05:15:00 20.6 C 91 % 19.08 C
929 28-07-2019 05:20:00 20.6 C 91 % 19.08 C
930 28-07-2019 05:25:00 20.6 C 91 % 19.08 C
931 28-07-2019 05:30:00 20.5 C 91 % 18.98 C
932 28-07-2019 05:35:00 20.5 C 91 % 18.98 C
933 28-07-2019 05:40:00 20.5 C 91 % 18.98 C
934 28-07-2019 05:45:00 20.5 C 91 % 18.98 C
935 28-07-2019 05:50:00 20.5 C 91 % 18.98 C
936 28-07-2019 05:55:00 20.5 C 91 % 18.98 C
937 28-07-2019 06:00:00 20.5 C 91 % 18.98 C
938 28-07-2019 06:05:00 20.5 C 91 % 18.98 C
939 28-07-2019 06:10:00 20.5 C 91 % 18.98 C
940 28-07-2019 06:15:00 20.5 C 91 % 18.98 C
941 28-07-2019 06:20:00 20.5 C 91 % 18.98 C
942 28-07-2019 06:25:00 20.5 C 91 % 18.98 C
943 28-07-2019 06:30:00 20.5 C 91 % 18.98 C
944 28-07-2019 06:35:00 20.6 C 91 % 19.08 C
945 28-07-2019 06:40:00 20.6 C 91 % 19.08 C
946 28-07-2019 06:45:00 20.6 C 91 % 19.08 C
947 28-07-2019 06:50:00 20.6 C 91 % 19.08 C
948 28-07-2019 06:55:00 20.6 C 91 % 19.08 C
949 28-07-2019 07:00:00 20.6 C 91 % 19.08 C
950 28-07-2019 07:05:00 20.7 C 91 % 19.18 C
Sensor: Nr:Datum:Temp:Feuchte:Taupunkt:
Aussen-T/F 951 28-07-2019 07:10:00 20.7 C 91 % 19.18 C
952 28-07-2019 07:15:00 20.7 C 90 % 19 C
953 28-07-2019 07:20:00 20.7 C 90 % 19 C
954 28-07-2019 07:25:00 20.7 C 90 % 19 C
955 28-07-2019 07:30:00 20.7 C 90 % 19 C
956 28-07-2019 07:35:00 20.7 C 90 % 19 C
957 28-07-2019 07:40:00 20.7 C 90 % 19 C
958 28-07-2019 07:45:00 20.7 C 89 % 18.82 C
959 28-07-2019 07:50:00 20.7 C 89 % 18.82 C
960 28-07-2019 07:55:00 20.7 C 89 % 18.82 C
961 28-07-2019 08:00:00 20.7 C 89 % 18.82 C
962 28-07-2019 08:05:00 20.7 C 89 % 18.82 C
963 28-07-2019 08:10:00 20.8 C 89 % 18.92 C
964 28-07-2019 08:15:00 20.8 C 89 % 18.92 C
965 28-07-2019 08:20:00 20.7 C 89 % 18.82 C
966 28-07-2019 08:25:00 20.7 C 89 % 18.82 C
967 28-07-2019 08:30:00 20.7 C 89 % 18.82 C
968 28-07-2019 08:35:00 20.7 C 89 % 18.82 C
969 28-07-2019 08:40:00 20.7 C 89 % 18.82 C
970 28-07-2019 08:45:00 20.7 C 89 % 18.82 C
971 28-07-2019 08:50:00 20.7 C 89 % 18.82 C
972 28-07-2019 08:55:00 20.7 C 90 % 19 C
973 28-07-2019 09:00:00 20.6 C 90 % 18.9 C
974 28-07-2019 09:05:00 20.6 C 90 % 18.9 C
975 28-07-2019 09:10:00 20.6 C 90 % 18.9 C
Sensor: Nr:Datum:Temp:Feuchte:Taupunkt:
Aussen-T/F 976 28-07-2019 09:15:00 20.6 C 90 % 18.9 C
977 28-07-2019 09:20:00 20.5 C 90 % 18.8 C
978 28-07-2019 09:25:00 20.4 C 90 % 18.7 C
979 28-07-2019 09:30:00 20.4 C 90 % 18.7 C
980 28-07-2019 09:35:00 20.3 C 90 % 18.61 C
981 28-07-2019 09:40:00 20.3 C 91 % 18.78 C
982 28-07-2019 09:45:00 20.3 C 91 % 18.78 C
983 28-07-2019 09:50:00 20.3 C 91 % 18.78 C
984 28-07-2019 09:55:00 20.2 C 91 % 18.68 C
985 28-07-2019 10:00:00 20.2 C 91 % 18.68 C
986 28-07-2019 10:05:00 20.2 C 91 % 18.68 C
987 28-07-2019 10:10:00 20.2 C 91 % 18.68 C
988 28-07-2019 10:15:00 20.2 C 91 % 18.68 C
989 28-07-2019 10:20:00 20.1 C 91 % 18.58 C
990 28-07-2019 10:25:00 20.1 C 92 % 18.76 C
991 28-07-2019 10:30:00 19.9 C 92 % 18.56 C
992 28-07-2019 10:35:00 19.9 C 92 % 18.56 C
993 28-07-2019 10:40:00 19.9 C 92 % 18.56 C
994 28-07-2019 10:45:00 19.9 C 93 % 18.73 C
995 28-07-2019 10:50:00 19.8 C 93 % 18.63 C
996 28-07-2019 10:55:00 19.9 C 93 % 18.73 C
997 28-07-2019 11:00:00 19.8 C 93 % 18.63 C
998 28-07-2019 11:05:00 19.8 C 93 % 18.63 C
999 28-07-2019 11:10:00 19.8 C 93 % 18.63 C
1000 28-07-2019 11:15:00 19.8 C 93 % 18.63 C
Sensor: Nr:Datum:Temp:Feuchte:Taupunkt:
Aussen-T/F 1001 28-07-2019 11:20:00 19.9 C 93 % 18.73 C
1002 28-07-2019 11:25:00 19.9 C 93 % 18.73 C
1003 28-07-2019 11:30:00 20.1 C 92 % 18.76 C
1004 28-07-2019 11:35:00 20.2 C 92 % 18.86 C
1005 28-07-2019 11:40:00 20.3 C 91 % 18.78 C
1006 28-07-2019 11:45:00 20.4 C 90 % 18.7 C
1007 28-07-2019 11:50:00 20.4 C 90 % 18.7 C
1008 28-07-2019 11:55:00 20.6 C 89 % 18.72 C
1009 28-07-2019 12:00:00 20.6 C 89 % 18.72 C
1010 28-07-2019 12:05:00 20.5 C 89 % 18.62 C
1011 28-07-2019 12:10:00 20.5 C 89 % 18.62 C
1012 28-07-2019 12:15:00 20.5 C 88 % 18.44 C
1013 28-07-2019 12:20:00 20.5 C 88 % 18.44 C
1014 28-07-2019 12:25:00 20.5 C 88 % 18.44 C
1015 28-07-2019 12:30:00 20.4 C 87 % 18.16 C
1016 28-07-2019 12:35:00 20.5 C 87 % 18.26 C
1017 28-07-2019 12:40:00 20.6 C 88 % 18.54 C
1018 28-07-2019 12:45:00 20.5 C 87 % 18.26 C
1019 28-07-2019 12:50:00 20.5 C 87 % 18.26 C
1020 28-07-2019 12:55:00 20.5 C 87 % 18.26 C
1021 28-07-2019 13:00:00 20.5 C 87 % 18.26 C
1022 28-07-2019 13:05:00 20.6 C 87 % 18.36 C
1023 28-07-2019 13:10:00 20.5 C 86 % 18.08 C
1024 28-07-2019 13:15:00 20.5 C 86 % 18.08 C
1025 28-07-2019 13:20:00 20.4 C 86 % 17.98 C
Sensor: Nr:Datum:Temp:Feuchte:Taupunkt:
Aussen-T/F 1026 28-07-2019 13:25:00 20.4 C 87 % 18.16 C
1027 28-07-2019 13:30:00 20.4 C 87 % 18.16 C
1028 28-07-2019 13:35:00 20.3 C 87 % 18.06 C
1029 28-07-2019 13:40:00 20.2 C 88 % 18.15 C
1030 28-07-2019 13:45:00 20.1 C 89 % 18.23 C
1031 28-07-2019 13:50:00 19.9 C 89 % 18.03 C
1032 28-07-2019 13:55:00 19.9 C 89 % 18.03 C
1033 28-07-2019 14:00:00 19.9 C 89 % 18.03 C
1034 28-07-2019 14:05:00 19.9 C 89 % 18.03 C
1035 28-07-2019 14:10:00 19.9 C 90 % 18.21 C
1036 28-07-2019 14:15:00 19.9 C 90 % 18.21 C
1037 28-07-2019 14:20:00 19.9 C 90 % 18.21 C
1038 28-07-2019 14:25:00 20 C 89 % 18.13 C
1039 28-07-2019 14:30:00 20.1 C 89 % 18.23 C
1040 28-07-2019 14:35:00 20.1 C 89 % 18.23 C
1041 28-07-2019 14:40:00 20.1 C 89 % 18.23 C
1042 28-07-2019 14:45:00 20.1 C 89 % 18.23 C
1043 28-07-2019 14:50:00 20 C 89 % 18.13 C
1044 28-07-2019 14:55:00 19.9 C 89 % 18.03 C
1045 28-07-2019 15:00:00 20 C 89 % 18.13 C
1046 28-07-2019 15:05:00 19.9 C 89 % 18.03 C
1047 28-07-2019 15:10:00 19.9 C 88 % 17.85 C
1048 28-07-2019 15:15:00 19.9 C 88 % 17.85 C
1049 28-07-2019 15:20:00 19.9 C 89 % 18.03 C
1050 28-07-2019 15:25:00 19.9 C 88 % 17.85 C
Sensor: Nr:Datum:Temp:Feuchte:Taupunkt:
Aussen-T/F 1051 28-07-2019 15:30:00 19.9 C 88 % 17.85 C
1052 28-07-2019 15:35:00 19.9 C 88 % 17.85 C
1053 28-07-2019 15:40:00 19.9 C 88 % 17.85 C
1054 28-07-2019 15:45:00 19.9 C 88 % 17.85 C
1055 28-07-2019 15:50:00 19.9 C 88 % 17.85 C
1056 28-07-2019 15:55:00 19.9 C 87 % 17.67 C
1057 28-07-2019 16:00:00 19.9 C 88 % 17.85 C
1058 28-07-2019 16:05:00 19.9 C 87 % 17.67 C
1059 28-07-2019 16:10:00 19.9 C 87 % 17.67 C
1060 28-07-2019 16:15:00 19.9 C 87 % 17.67 C
1061 28-07-2019 16:20:00 19.8 C 87 % 17.57 C
1062 28-07-2019 16:25:00 19.8 C 88 % 17.75 C
1063 28-07-2019 16:30:00 19.8 C 88 % 17.75 C
1064 28-07-2019 16:35:00 19.8 C 88 % 17.75 C
1065 28-07-2019 16:40:00 19.8 C 88 % 17.75 C
1066 28-07-2019 16:45:00 19.7 C 88 % 17.66 C
1067 28-07-2019 16:50:00 19.7 C 88 % 17.66 C
1068 28-07-2019 16:55:00 19.8 C 88 % 17.75 C
1069 28-07-2019 17:00:00 19.7 C 88 % 17.66 C
1070 28-07-2019 17:05:00 19.8 C 89 % 17.93 C
1071 28-07-2019 17:10:00 19.7 C 89 % 17.84 C
1072 28-07-2019 17:15:00 19.6 C 89 % 17.74 C
1073 28-07-2019 17:20:00 19.4 C 89 % 17.54 C
1074 28-07-2019 17:25:00 19.4 C 90 % 17.72 C
1075 28-07-2019 17:30:00 19.4 C 90 % 17.72 C
Sensor: Nr:Datum:Temp:Feuchte:Taupunkt:
Aussen-T/F 1076 28-07-2019 17:35:00 19.3 C 90 % 17.62 C
1077 28-07-2019 17:40:00 19.3 C 90 % 17.62 C
1078 28-07-2019 17:45:00 19.3 C 91 % 17.79 C
1079 28-07-2019 17:50:00 19.3 C 91 % 17.79 C
1080 28-07-2019 17:55:00 19.3 C 92 % 17.97 C
1081 28-07-2019 18:00:00 19.2 C 91 % 17.69 C
1082 28-07-2019 18:05:00 19.2 C 91 % 17.69 C
1083 28-07-2019 18:10:00 19.2 C 91 % 17.69 C
1084 28-07-2019 18:15:00 19.3 C 91 % 17.79 C
1085 28-07-2019 18:20:00 19.2 C 90 % 17.52 C
1086 28-07-2019 18:25:00 19.2 C 90 % 17.52 C
1087 28-07-2019 18:30:00 19.2 C 90 % 17.52 C
1088 28-07-2019 18:35:00 19.2 C 90 % 17.52 C
1089 28-07-2019 18:40:00 19.1 C 90 % 17.42 C
1090 28-07-2019 18:45:00 19.1 C 90 % 17.42 C
1091 28-07-2019 18:50:00 19.1 C 90 % 17.42 C
1092 28-07-2019 18:55:00 19.1 C 91 % 17.6 C
1093 28-07-2019 19:00:00 19.1 C 91 % 17.6 C
1094 28-07-2019 19:05:00 19.1 C 91 % 17.6 C
1095 28-07-2019 19:10:00 19 C 91 % 17.5 C
1096 28-07-2019 19:15:00 18.9 C 91 % 17.4 C
1097 28-07-2019 19:20:00 18.9 C 91 % 17.4 C
1098 28-07-2019 19:25:00 18.9 C 92 % 17.57 C
1099 28-07-2019 19:30:00 18.9 C 92 % 17.57 C
1100 28-07-2019 19:35:00 18.8 C 92 % 17.47 C
Sensor: Nr:Datum:Temp:Feuchte:Taupunkt:
Aussen-T/F 1101 28-07-2019 19:40:00 18.8 C 92 % 17.47 C
1102 28-07-2019 19:45:00 18.7 C 92 % 17.37 C
1103 28-07-2019 19:50:00 18.7 C 92 % 17.37 C
1104 28-07-2019 19:55:00 18.7 C 92 % 17.37 C
1105 28-07-2019 20:00:00 18.7 C 92 % 17.37 C
1106 28-07-2019 20:05:00 18.7 C 92 % 17.37 C
1107 28-07-2019 20:10:00 18.6 C 92 % 17.27 C
1108 28-07-2019 20:15:00 18.6 C 93 % 17.45 C
1109 28-07-2019 20:20:00 18.6 C 93 % 17.45 C
1110 28-07-2019 20:25:00 18.6 C 93 % 17.45 C
1111 28-07-2019 20:30:00 18.5 C 93 % 17.35 C
1112 28-07-2019 20:35:00 18.4 C 93 % 17.25 C
1113 28-07-2019 20:40:00 18.4 C 93 % 17.25 C
1114 28-07-2019 20:45:00 18.3 C 93 % 17.15 C
1115 28-07-2019 20:50:00 18.3 C 93 % 17.15 C
1116 28-07-2019 20:55:00 18.3 C 93 % 17.15 C
1117 28-07-2019 21:00:00 18.2 C 93 % 17.05 C
1118 28-07-2019 21:05:00 18.2 C 93 % 17.05 C
1119 28-07-2019 21:10:00 18.2 C 94 % 17.22 C
1120 28-07-2019 21:15:00 18.2 C 94 % 17.22 C
1121 28-07-2019 21:20:00 18.2 C 94 % 17.22 C
1122 28-07-2019 21:25:00 18.2 C 94 % 17.22 C
1123 28-07-2019 21:30:00 18.2 C 94 % 17.22 C
1124 28-07-2019 21:35:00 18.2 C 94 % 17.22 C
1125 28-07-2019 21:40:00 18.2 C 94 % 17.22 C
Sensor: Nr:Datum:Temp:Feuchte:Taupunkt:
Aussen-T/F 1126 28-07-2019 21:45:00 18.1 C 94 % 17.12 C
1127 28-07-2019 21:50:00 18.1 C 94 % 17.12 C
1128 28-07-2019 21:55:00 18.1 C 94 % 17.12 C
1129 28-07-2019 22:00:00 18.1 C 94 % 17.12 C
1130 28-07-2019 22:05:00 18.1 C 94 % 17.12 C
1131 28-07-2019 22:10:00 18 C 94 % 17.02 C
1132 28-07-2019 22:15:00 17.9 C 95 % 17.09 C
1133 28-07-2019 22:20:00 17.9 C 95 % 17.09 C
1134 28-07-2019 22:25:00 17.9 C 95 % 17.09 C
1135 28-07-2019 22:30:00 17.9 C 95 % 17.09 C
1136 28-07-2019 22:35:00 17.9 C 95 % 17.09 C
1137 28-07-2019 22:40:00 17.8 C 95 % 16.99 C
1138 28-07-2019 22:45:00 17.8 C 95 % 16.99 C
1139 28-07-2019 22:50:00 17.8 C 95 % 16.99 C
1140 28-07-2019 22:55:00 17.8 C 95 % 16.99 C
1141 28-07-2019 23:00:00 17.7 C 95 % 16.89 C
1142 28-07-2019 23:05:00 17.7 C 95 % 16.89 C
1143 28-07-2019 23:10:00 17.7 C 95 % 16.89 C
1144 28-07-2019 23:15:00 17.7 C 95 % 16.89 C
1145 28-07-2019 23:20:00 17.7 C 95 % 16.89 C
1146 28-07-2019 23:25:00 17.6 C 95 % 16.79 C
1147 28-07-2019 23:30:00 17.6 C 95 % 16.79 C
1148 28-07-2019 23:35:00 17.6 C 95 % 16.79 C
1149 28-07-2019 23:40:00 17.5 C 95 % 16.69 C
1150 28-07-2019 23:45:00 17.5 C 95 % 16.69 C
Sensor: Nr:Datum:Temp:Feuchte:Taupunkt:
Aussen-T/F 1151 28-07-2019 23:50:00 17.4 C 95 % 16.59 C
1152 28-07-2019 23:55:00 17.5 C 95 % 16.69 C
1153 29-07-2019 00:00:00 17.4 C 95 % 16.59 C
1154 29-07-2019 00:05:00 17.4 C 95 % 16.59 C
1155 29-07-2019 00:10:00 17.4 C 95 % 16.59 C
1156 29-07-2019 00:15:00 17.4 C 95 % 16.59 C
1157 29-07-2019 00:20:00 17.4 C 95 % 16.59 C
1158 29-07-2019 00:25:00 17.4 C 95 % 16.59 C
1159 29-07-2019 00:30:00 17.3 C 95 % 16.49 C
1160 29-07-2019 00:35:00 17.3 C 95 % 16.49 C
1161 29-07-2019 00:40:00 17.3 C 95 % 16.49 C
1162 29-07-2019 00:45:00 17.2 C 95 % 16.39 C
1163 29-07-2019 00:50:00 17.2 C 95 % 16.39 C
1164 29-07-2019 00:55:00 17.2 C 95 % 16.39 C
1165 29-07-2019 01:00:00 17.1 C 95 % 16.29 C
1166 29-07-2019 01:05:00 17.2 C 95 % 16.39 C
1167 29-07-2019 01:10:00 17.1 C 95 % 16.29 C
1168 29-07-2019 01:15:00 17.1 C 95 % 16.29 C
1169 29-07-2019 01:20:00 17.1 C 95 % 16.29 C
1170 29-07-2019 01:25:00 17.1 C 95 % 16.29 C
1171 29-07-2019 01:30:00 17.1 C 95 % 16.29 C
1172 29-07-2019 01:35:00 17.1 C 95 % 16.29 C
1173 29-07-2019 01:40:00 17.1 C 95 % 16.29 C
1174 29-07-2019 01:45:00 17.1 C 95 % 16.29 C
1175 29-07-2019 01:50:00 17.1 C 95 % 16.29 C
Sensor: Nr:Datum:Temp:Feuchte:Taupunkt:
Aussen-T/F 1176 29-07-2019 01:55:00 17.1 C 95 % 16.29 C
1177 29-07-2019 02:00:00 17.1 C 95 % 16.29 C
1178 29-07-2019 02:05:00 17 C 95 % 16.19 C
1179 29-07-2019 02:10:00 17 C 95 % 16.19 C
1180 29-07-2019 02:15:00 17 C 96 % 16.36 C
1181 29-07-2019 02:20:00 17 C 96 % 16.36 C
1182 29-07-2019 02:25:00 17 C 96 % 16.36 C
1183 29-07-2019 02:30:00 17 C 96 % 16.36 C
1184 29-07-2019 02:35:00 17 C 96 % 16.36 C
1185 29-07-2019 02:40:00 16.9 C 96 % 16.26 C
1186 29-07-2019 02:45:00 16.9 C 96 % 16.26 C
1187 29-07-2019 02:50:00 16.9 C 96 % 16.26 C
1188 29-07-2019 02:55:00 16.9 C 96 % 16.26 C
1189 29-07-2019 03:00:00 16.9 C 96 % 16.26 C
1190 29-07-2019 03:05:00 16.9 C 96 % 16.26 C
1191 29-07-2019 03:10:00 16.9 C 96 % 16.26 C
1192 29-07-2019 03:15:00 16.9 C 96 % 16.26 C
1193 29-07-2019 03:20:00 16.9 C 96 % 16.26 C
1194 29-07-2019 03:25:00 16.8 C 96 % 16.16 C
1195 29-07-2019 03:30:00 16.8 C 96 % 16.16 C
1196 29-07-2019 03:35:00 16.8 C 96 % 16.16 C
1197 29-07-2019 03:40:00 16.8 C 96 % 16.16 C
1198 29-07-2019 03:45:00 16.8 C 96 % 16.16 C
1199 29-07-2019 03:50:00 16.8 C 96 % 16.16 C
1200 29-07-2019 03:55:00 16.8 C 96 % 16.16 C
Sensor: Nr:Datum:Temp:Feuchte:Taupunkt:
Aussen-T/F 1201 29-07-2019 04:00:00 16.9 C 96 % 16.26 C
1202 29-07-2019 04:05:00 16.8 C 96 % 16.16 C
1203 29-07-2019 04:10:00 16.8 C 96 % 16.16 C
1204 29-07-2019 04:15:00 16.8 C 96 % 16.16 C
1205 29-07-2019 04:20:00 16.8 C 96 % 16.16 C
1206 29-07-2019 04:25:00 16.8 C 96 % 16.16 C
1207 29-07-2019 04:30:00 16.8 C 96 % 16.16 C
1208 29-07-2019 04:35:00 16.8 C 96 % 16.16 C
1209 29-07-2019 04:40:00 16.8 C 96 % 16.16 C
1210 29-07-2019 04:45:00 16.8 C 96 % 16.16 C
1211 29-07-2019 04:50:00 16.8 C 96 % 16.16 C
1212 29-07-2019 04:55:00 16.8 C 96 % 16.16 C
1213 29-07-2019 05:00:00 16.8 C 96 % 16.16 C
1214 29-07-2019 05:05:00 16.8 C 96 % 16.16 C
1215 29-07-2019 05:10:00 16.8 C 96 % 16.16 C
1216 29-07-2019 05:15:00 16.8 C 96 % 16.16 C
1217 29-07-2019 05:20:00 16.8 C 96 % 16.16 C
1218 29-07-2019 05:25:00 16.7 C 96 % 16.06 C
1219 29-07-2019 05:30:00 16.7 C 96 % 16.06 C
1220 29-07-2019 05:35:00 16.7 C 96 % 16.06 C
1221 29-07-2019 05:40:00 16.7 C 96 % 16.06 C
1222 29-07-2019 05:45:00 16.7 C 96 % 16.06 C
1223 29-07-2019 05:50:00 16.7 C 96 % 16.06 C
1224 29-07-2019 05:55:00 16.7 C 96 % 16.06 C
1225 29-07-2019 06:00:00 16.7 C 96 % 16.06 C
Sensor: Nr:Datum:Temp:Feuchte:Taupunkt:
Aussen-T/F 1226 29-07-2019 06:05:00 16.7 C 96 % 16.06 C
1227 29-07-2019 06:10:00 16.7 C 96 % 16.06 C
1228 29-07-2019 06:15:00 16.7 C 96 % 16.06 C
1229 29-07-2019 06:20:00 16.7 C 96 % 16.06 C
1230 29-07-2019 06:25:00 16.7 C 96 % 16.06 C
1231 29-07-2019 06:30:00 16.7 C 96 % 16.06 C
1232 29-07-2019 06:35:00 16.7 C 96 % 16.06 C
1233 29-07-2019 06:40:00 16.7 C 96 % 16.06 C
1234 29-07-2019 06:45:00 16.8 C 96 % 16.16 C
1235 29-07-2019 06:50:00 16.8 C 96 % 16.16 C
1236 29-07-2019 06:55:00 16.8 C 96 % 16.16 C
1237 29-07-2019 07:00:00 16.9 C 96 % 16.26 C
1238 29-07-2019 07:05:00 16.9 C 96 % 16.26 C
1239 29-07-2019 07:10:00 16.9 C 96 % 16.26 C
1240 29-07-2019 07:15:00 17 C 96 % 16.36 C
1241 29-07-2019 07:20:00 17.1 C 96 % 16.46 C
1242 29-07-2019 07:25:00 17.1 C 96 % 16.46 C
1243 29-07-2019 07:30:00 16.9 C 96 % 16.26 C
1244 29-07-2019 07:35:00 16.9 C 96 % 16.26 C
1245 29-07-2019 07:40:00 17 C 96 % 16.36 C
1246 29-07-2019 07:45:00 17 C 95 % 16.19 C
1247 29-07-2019 07:50:00 17.1 C 95 % 16.29 C
1248 29-07-2019 07:55:00 17.1 C 95 % 16.29 C
1249 29-07-2019 08:00:00 17.2 C 95 % 16.39 C
1250 29-07-2019 08:05:00 17.2 C 94 % 16.23 C
Sensor: Nr:Datum:Temp:Feuchte:Taupunkt:
Aussen-T/F 1251 29-07-2019 08:10:00 17.3 C 94 % 16.33 C
1252 29-07-2019 08:15:00 17.3 C 93 % 16.16 C
1253 29-07-2019 08:20:00 17.4 C 94 % 16.42 C
1254 29-07-2019 08:25:00 17.4 C 93 % 16.26 C
1255 29-07-2019 08:30:00 17.4 C 92 % 16.09 C
1256 29-07-2019 08:35:00 17.6 C 92 % 16.28 C
1257 29-07-2019 08:40:00 17.6 C 92 % 16.28 C
1258 29-07-2019 08:45:00 17.6 C 91 % 16.11 C
1259 29-07-2019 08:50:00 17.7 C 90 % 16.04 C
1260 29-07-2019 08:55:00 17.9 C 91 % 16.41 C
1261 29-07-2019 09:00:00 18 C 90 % 16.34 C
1262 29-07-2019 09:05:00 18.2 C 90 % 16.53 C
1263 29-07-2019 09:10:00 18.2 C 88 % 16.18 C
1264 29-07-2019 09:15:00 18.3 C 88 % 16.28 C
1265 29-07-2019 09:20:00 18.3 C 88 % 16.28 C
1266 29-07-2019 09:25:00 18.4 C 87 % 16.2 C
1267 29-07-2019 09:30:00 18.6 C 86 % 16.21 C
1268 29-07-2019 09:35:00 18.7 C 86 % 16.31 C
1269 29-07-2019 09:40:00 18.8 C 84 % 16.04 C
1270 29-07-2019 09:45:00 18.8 C 83 % 15.85 C
1271 29-07-2019 09:50:00 18.8 C 83 % 15.85 C
1272 29-07-2019 09:55:00 18.8 C 83 % 15.85 C
1273 29-07-2019 10:00:00 18.8 C 82 % 15.66 C
1274 29-07-2019 10:05:00 18.8 C 83 % 15.85 C
1275 29-07-2019 10:10:00 18.9 C 83 % 15.95 C
Sensor: Nr:Datum:Temp:Feuchte:Taupunkt:
Aussen-T/F 1276 29-07-2019 10:15:00 19.1 C 81 % 15.76 C
1277 29-07-2019 10:20:00 19.3 C 80 % 15.76 C
1278 29-07-2019 10:25:00 19.4 C 79 % 15.66 C
1279 29-07-2019 10:30:00 19.5 C 79 % 15.76 C
1280 29-07-2019 10:35:00 19.7 C 79 % 15.96 C
1281 29-07-2019 10:40:00 19.7 C 77 % 15.56 C
1282 29-07-2019 10:45:00 19.8 C 78 % 15.85 C
1283 29-07-2019 10:50:00 19.8 C 76 % 15.45 C
1284 29-07-2019 10:55:00 19.9 C 75 % 15.34 C
1285 29-07-2019 11:00:00 19.9 C 75 % 15.34 C
1286 29-07-2019 11:05:00 20 C 76 % 15.64 C
1287 29-07-2019 11:10:00 20 C 75 % 15.43 C
1288 29-07-2019 11:15:00 20.1 C 75 % 15.53 C
1289 29-07-2019 11:20:00 20.2 C 75 % 15.63 C
1290 29-07-2019 11:25:00 20.3 C 76 % 15.93 C
1291 29-07-2019 11:30:00 20.4 C 74 % 15.61 C
1292 29-07-2019 11:35:00 20.6 C 73 % 15.59 C
1293 29-07-2019 11:40:00 20.8 C 72 % 15.57 C
1294 29-07-2019 11:45:00 21 C 72 % 15.76 C
1295 29-07-2019 11:50:00 21.2 C 72 % 15.95 C
1296 29-07-2019 11:55:00 21.2 C 70 % 15.51 C
1297 29-07-2019 12:00:00 21.4 C 68 % 15.25 C
1298 29-07-2019 12:05:00 21.5 C 67 % 15.12 C
1299 29-07-2019 12:10:00 21.6 C 69 % 15.67 C
1300 29-07-2019 12:15:00 21.6 C 68 % 15.44 C
Sensor: Nr:Datum:Temp:Feuchte:Taupunkt:
Aussen-T/F 1301 29-07-2019 12:20:00 21.8 C 68 % 15.63 C
1302 29-07-2019 12:25:00 21.9 C 66 % 15.26 C
1303 29-07-2019 12:30:00 22.1 C 66 % 15.45 C
1304 29-07-2019 12:35:00 22.1 C 65 % 15.21 C
1305 29-07-2019 12:40:00 22.2 C 66 % 15.55 C
1306 29-07-2019 12:45:00 22.3 C 65 % 15.4 C
1307 29-07-2019 12:50:00 22.4 C 65 % 15.5 C
1308 29-07-2019 12:55:00 22.5 C 64 % 15.35 C
1309 29-07-2019 13:00:00 22.6 C 65 % 15.69 C
1310 29-07-2019 13:05:00 22.7 C 63 % 15.3 C
1311 29-07-2019 13:10:00 22.8 C 64 % 15.64 C
1312 29-07-2019 13:15:00 23 C 61 % 15.08 C
1313 29-07-2019 13:20:00 23.2 C 61 % 15.26 C
1314 29-07-2019 13:25:00 23.3 C 62 % 15.61 C
1315 29-07-2019 13:30:00 23.5 C 61 % 15.55 C
1316 29-07-2019 13:35:00 23.6 C 62 % 15.89 C
1317 29-07-2019 13:40:00 23.5 C 62 % 15.8 C
1318 29-07-2019 13:45:00 23.5 C 62 % 15.8 C
1319 29-07-2019 13:50:00 23.6 C 61 % 15.64 C
1320 29-07-2019 13:55:00 23.7 C 60 % 15.48 C
1321 29-07-2019 14:00:00 23.7 C 60 % 15.48 C
1322 29-07-2019 14:05:00 23.8 C 60 % 15.57 C
1323 29-07-2019 14:10:00 23.9 C 61 % 15.92 C
1324 29-07-2019 14:15:00 24.2 C 59 % 15.68 C
1325 29-07-2019 14:20:00 24.4 C 58 % 15.6 C
Sensor: Nr:Datum:Temp:Feuchte:Taupunkt:
Aussen-T/F 1326 29-07-2019 14:25:00 24.5 C 58 % 15.7 C
1327 29-07-2019 14:30:00 24.7 C 56 % 15.33 C
1328 29-07-2019 14:35:00 24.7 C 57 % 15.61 C
1329 29-07-2019 14:40:00 24.7 C 57 % 15.61 C
1330 29-07-2019 14:45:00 24.8 C 54 % 14.86 C
1331 29-07-2019 14:50:00 24.8 C 55 % 15.15 C
1332 29-07-2019 14:55:00 24.8 C 55 % 15.15 C
1333 29-07-2019 15:00:00 24.8 C 54 % 14.86 C
1334 29-07-2019 15:05:00 24.9 C 54 % 14.95 C
1335 29-07-2019 15:10:00 25.1 C 54 % 15.14 C
1336 29-07-2019 15:15:00 25.4 C 53 % 15.13 C
1337 29-07-2019 15:20:00 25.6 C 52 % 15.02 C
1338 29-07-2019 15:25:00 25.7 C 51 % 14.81 C
1339 29-07-2019 15:30:00 25.9 C 51 % 14.99 C
1340 29-07-2019 15:35:00 26.1 C 51 % 15.17 C
1341 29-07-2019 15:40:00 26.1 C 50 % 14.87 C
1342 29-07-2019 15:45:00 26.4 C 50 % 15.14 C
1343 29-07-2019 15:50:00 26.8 C 49 % 15.19 C
1344 29-07-2019 15:55:00 27.2 C 48 % 15.24 C
1345 29-07-2019 16:00:00 27.3 C 47 % 15 C
1346 29-07-2019 16:05:00 27.4 C 47 % 15.09 C
1347 29-07-2019 16:10:00 27.6 C 46 % 14.94 C
1348 29-07-2019 16:15:00 27.3 C 47 % 15 C
1349 29-07-2019 16:20:00 27.2 C 47 % 14.91 C
1350 29-07-2019 16:25:00 27.2 C 46 % 14.58 C
Sensor: Nr:Datum:Temp:Feuchte:Taupunkt:
Aussen-T/F 1351 29-07-2019 16:30:00 27.3 C 47 % 15 C
1352 29-07-2019 16:35:00 27.7 C 45 % 14.69 C
1353 29-07-2019 16:40:00 27.9 C 45 % 14.87 C
1354 29-07-2019 16:45:00 28.2 C 44 % 14.79 C
1355 29-07-2019 16:50:00 28.2 C 44 % 14.79 C
1356 29-07-2019 16:55:00 27.9 C 44 % 14.52 C
1357 29-07-2019 17:00:00 27.9 C 45 % 14.87 C
1358 29-07-2019 17:05:00 28 C 45 % 14.96 C
1359 29-07-2019 17:10:00 28.3 C 44 % 14.88 C
1360 29-07-2019 17:15:00 28.4 C 43 % 14.62 C
1361 29-07-2019 17:20:00 28.3 C 42 % 14.16 C
1362 29-07-2019 17:25:00 28.4 C 43 % 14.62 C
1363 29-07-2019 17:30:00 28.4 C 42 % 14.25 C
1364 29-07-2019 17:35:00 28.4 C 43 % 14.62 C
1365 29-07-2019 17:40:00 28.6 C 43 % 14.8 C
1366 29-07-2019 17:45:00 28.3 C 43 % 14.53 C
1367 29-07-2019 17:50:00 28.1 C 43 % 14.35 C
1368 29-07-2019 17:55:00 27.7 C 43 % 13.99 C
1369 29-07-2019 18:00:00 27.4 C 44 % 14.07 C
1370 29-07-2019 18:05:00 27.2 C 44 % 13.89 C
1371 29-07-2019 18:10:00 27.1 C 45 % 14.15 C
1372 29-07-2019 18:15:00 27.3 C 45 % 14.33 C
1373 29-07-2019 18:20:00 27.4 C 44 % 14.07 C
1374 29-07-2019 18:25:00 27.4 C 44 % 14.07 C
1375 29-07-2019 18:30:00 27.4 C 44 % 14.07 C
Sensor: Nr:Datum:Temp:Feuchte:Taupunkt:
Aussen-T/F 1376 29-07-2019 18:35:00 27.7 C 44 % 14.34 C
1377 29-07-2019 18:40:00 28 C 43 % 14.26 C
1378 29-07-2019 18:45:00 28.3 C 42 % 14.16 C
1379 29-07-2019 18:50:00 28.6 C 42 % 14.43 C
1380 29-07-2019 18:55:00 28.7 C 41 % 14.15 C
1381 29-07-2019 19:00:00 28.8 C 41 % 14.24 C
1382 29-07-2019 19:05:00 28.9 C 42 % 14.7 C
1383 29-07-2019 19:10:00 28.9 C 41 % 14.33 C
1384 29-07-2019 19:15:00 28.8 C 41 % 14.24 C
1385 29-07-2019 19:20:00 28.6 C 42 % 14.43 C
1386 29-07-2019 19:25:00 28.1 C 43 % 14.35 C
1387 29-07-2019 19:30:00 27.9 C 44 % 14.52 C
1388 29-07-2019 19:35:00 27.7 C 44 % 14.34 C
1389 29-07-2019 19:40:00 27.6 C 45 % 14.6 C
1390 29-07-2019 19:45:00 27.4 C 46 % 14.76 C
1391 29-07-2019 19:50:00 27.3 C 45 % 14.33 C
1392 29-07-2019 19:55:00 27.2 C 46 % 14.58 C
1393 29-07-2019 20:00:00 27.1 C 46 % 14.49 C
1394 29-07-2019 20:05:00 27 C 47 % 14.73 C
1395 29-07-2019 20:10:00 26.8 C 47 % 14.55 C
1396 29-07-2019 20:15:00 26.6 C 48 % 14.69 C
1397 29-07-2019 20:20:00 26.4 C 49 % 14.83 C
1398 29-07-2019 20:25:00 26.3 C 49 % 14.74 C
1399 29-07-2019 20:30:00 26.3 C 50 % 15.05 C
1400 29-07-2019 20:35:00 26.2 C 50 % 14.96 C
Sensor: Nr:Datum:Temp:Feuchte:Taupunkt:
Aussen-T/F 1401 29-07-2019 20:40:00 26 C 50 % 14.77 C
1402 29-07-2019 20:45:00 25.9 C 51 % 14.99 C
1403 29-07-2019 20:50:00 25.8 C 51 % 14.9 C
1404 29-07-2019 20:55:00 25.6 C 52 % 15.02 C
1405 29-07-2019 21:00:00 25.3 C 55 % 15.61 C
1406 29-07-2019 21:05:00 24.9 C 56 % 15.52 C
1407 29-07-2019 21:10:00 24.5 C 59 % 15.96 C
1408 29-07-2019 21:15:00 24 C 59 % 15.5 C
1409 29-07-2019 21:20:00 23.5 C 60 % 15.29 C
1410 29-07-2019 21:25:00 23 C 61 % 15.08 C
1411 29-07-2019 21:30:00 22.6 C 63 % 15.2 C
1412 29-07-2019 21:35:00 22.2 C 64 % 15.07 C
1413 29-07-2019 21:40:00 21.9 C 65 % 15.02 C
1414 29-07-2019 21:45:00 21.8 C 66 % 15.17 C
1415 29-07-2019 21:50:00 21.6 C 66 % 14.98 C
1416 29-07-2019 21:55:00 21.4 C 66 % 14.79 C
1417 29-07-2019 22:00:00 21.3 C 67 % 14.93 C
1418 29-07-2019 22:05:00 21.2 C 68 % 15.06 C
1419 29-07-2019 22:10:00 21.1 C 68 % 14.97 C
1420 29-07-2019 22:15:00 21 C 68 % 14.87 C
1421 29-07-2019 22:20:00 20.9 C 68 % 14.77 C
1422 29-07-2019 22:25:00 20.8 C 69 % 14.91 C
1423 29-07-2019 22:30:00 20.8 C 70 % 15.13 C
1424 29-07-2019 22:35:00 20.7 C 71 % 15.25 C
1425 29-07-2019 22:40:00 20.6 C 71 % 15.16 C
Sensor: Nr:Datum:Temp:Feuchte:Taupunkt:
Aussen-T/F 1426 29-07-2019 22:45:00 20.4 C 71 % 14.97 C
1427 29-07-2019 22:50:00 20.2 C 72 % 14.99 C
1428 29-07-2019 22:55:00 20.1 C 73 % 15.11 C
1429 29-07-2019 23:00:00 20 C 73 % 15.01 C
1430 29-07-2019 23:05:00 19.9 C 73 % 14.92 C
1431 29-07-2019 23:10:00 19.8 C 74 % 15.03 C
1432 29-07-2019 23:15:00 19.7 C 75 % 15.15 C
1433 29-07-2019 23:20:00 19.6 C 75 % 15.05 C
1434 29-07-2019 23:25:00 19.4 C 75 % 14.86 C
1435 29-07-2019 23:30:00 19.3 C 76 % 14.97 C
1436 29-07-2019 23:35:00 19.1 C 76 % 14.77 C
1437 29-07-2019 23:40:00 19 C 77 % 14.88 C
1438 29-07-2019 23:45:00 18.8 C 77 % 14.68 C
1439 29-07-2019 23:50:00 18.8 C 78 % 14.88 C
1440 29-07-2019 23:55:00 18.7 C 78 % 14.79 C

Legende:
   Min
   Max


Maximal/Minimal-Werte vom 25.07.2019 - 29.07.2019

Sensor Min Max Avg
Temp
(Aussen-T/F)
16.7 °C
29-07-2019  05:25:00
40.4 °C
25-07-2019  16:20:00
24.03 °C
Feuchte
(Aussen-T/F)
22 %
25-07-2019  17:15:00
96 %
29-07-2019  02:15:00
70.76 %
Taupunkt
(Aussen-T/F)
13.65 C
25-07-2019  18:20:00
22.08 C
27-07-2019  11:20:00
17.31 C

Die Daten stammen von einer Davis Vantage Pro 2 Wetter-Station und werden unter Linux mit der Software wview2wettercgi und aufbereitet. Alle Angaben erfolgen ohne Gewähr für ihre Vollständigkeit oder Richtigkeit.
Kontakt: Rainer Krienke krienke@uni-koblenz.de . Meine Webseiten an der Uni Koblenz oder privat.
Version: $Revision: 0.78 $